GFSMA_2pvu_pres_000.txt.gz
Presure
178 219 218 141 101 125 185 215 213 198 168 191 178 196 183 157 153 149 150 143 150 156 144 159 144 159 156 164 162 153 173 162 171 176 166 163 158 151 145 171 156 175 170
235 236 155 132 170 216 215 174 183 176 158 161 166 143 165 163 161 153 136 128 159 148 151 144 149 152 161 165 159 179 156 181 76 184 165 161 156 148 143 169 154 172 164
151 234 91 114 104 211 169 165 126 135 160 167 129 158 159 152 168 139 167 167 162 155 156 150 134 171 168 139 146 159 154 178 169 169 161 153 150 163 174 168 159 154 165
155 168 101 91 163 179 103 143 153 154 157 160 161 131 163 134 143 153 157 160 155 157 144 174 178 156 162 163 161 165 180 177 163 165 160 153 180 154 174 174 162 180 162
104 99 103 104 123 125 173 164 165 165 169 169 162 161 136 159 166 161 169 155 136 176 179 161 164 165 175 165 154 154 167 147 164 166 162 161 154 158 173 170 178 147 171
102 101 100 94 157 158 167 166 165 163 163 165 128 165 123 137 167 142 147 161 154 149 141 159 154 173 171 168 165 134 179 170 167 184 190 186 140 182 181 184 186 175 156
102 96 104 163 155 160 179 175 156 142 177 155 118 117 151 184 156 159 181 168 157 169 171 170 167 160 152 182 189 190 193 114 202 192 191 126 151 200 137 187 164 188 201
82 171 176 178 177 176 173 168 163 156 121 131 125 170 163 183 176 151 148 156 162 182 170 172 179 184 187 188 190 186 118 133 182 125 145 203 138 198 192 134 155 179 194
168 169 149 172 153 153 161 154 144 127 166 153 139 182 164 168 159 152 160 169 164 168 180 190 184 183 126 153 143 127 111 143 129 166 158 162 135 139 134 147 166 138 140
171 130 153 168 175 170 134 154 164 133 176 181 168 162 182 191 112 164 170 170 167 181 185 185 176 192 129 149 130 121 116 154 121 144 190 116 142 139 168 151 157 144 150
164 164 164 170 167 120 128 130 190 185 188 174 194 169 160 182 168 173 174 202 113 188 192 194 142 168 154 153 131 117 202 223 147 172 201 189 117 153 177 176 172 139 218
172 158 168 142 122 180 180 155 178 190 192 191 182 173 197 163 189 171 145 186 156 154 130 166 153 184 143 180 194 224 198 224 229 234 223 163 235 239 237 232 222 223 141
161 163 165 126 155 198 201 206 201 199 179 205 207 150 192 199 129 183 207 157 206 149 215 140 176 227 228 234 238 237 239 242 206 204 237 239 237 226 227 231 222 217 212
210 203 133 179 195 194 172 193 121 187 198 198 211 208 206 137 150 142 186 180 172 139 144 172 231 242 256 182 256 328 313 298 343 316 301 287 279 257 247 204 239 190 196
155 141 153 192 199 195 186 148 147 181 173 178 144 142 111 157 189 153 190 155 225 241 250 234 258 298 442 449 472 482 478 465 459 454 448 473 411 339 314 312 306 283 271
192 196 204 197 182 127 174 212 135 113 145 139 205 138 151 153 222 216 211 230 227 252 250 262 475 458 297 432 429 432 445 417 446 435 426 425 431 441 420 413 382 329 315
196 212 209 130 157 137 145 133 131 144 167 190 144 165 213 209 209 239 233 246 244 261 426 446 424 321 216 408 407 402 398 401 420 425 415 411 407 404 415 416 408 404 378
230 114 130 215 134 134 202 151 144 132 141 192 216 215 160 234 220 236 251 254 447 437 420 418 471 463 463 477 635 411 389 382 383 410 403 397 395 394 393 414 400 410 412
103 202 131 202 132 134 162 139 127 156 203 201 142 233 233 240 247 240 242 451 429 411 460 439 429 424 422 422 430 453 632 408 371 333 392 390 385 385 388 391 394 396 388
146 211 134 129 142 230 210 136 182 176 195 224 221 242 236 234 243 404 446 421 406 459 435 417 404 408 407 459 484 536 501 593 465 366 372 391 384 382 377 380 386 392 401
212 132 134 224 203 135 163 209 117 214 219 227 227 254 257 331 373 441 418 403 444 435 415 405 400 395 435 447 477 511 529 527 578 451 368 379 391 386 379 378 379 378 395
131 230 214 158 131 211 208 216 214 220 225 213 249 279 242 385 440 418 397 439 405 417 403 396 387 407 425 431 457 485 504 522 518 557 367 370 366 371 367 382 384 385 378
225 210 150 137 203 142 219 219 224 222 233 257 285 323 382 437 415 397 405 417 377 402 374 377 394 417 431 430 451 475 480 494 514 534 519 357 363 367 378 380 389 377 377
187 144 180 187 210 215 212 210 232 222 238 288 399 380 438 414 392 387 427 397 419 359 339 383 414 430 432 437 456 471 478 485 533 524 390 359 351 339 310 293 368 344 313
177 201 207 202 211 201 223 228 241 258 302 445 380 379 412 390 380 422 412 383 361 319 374 402 422 438 442 521 526 499 499 491 501 381 361 352 357 322 360 365 383 355 312
193 207 218 217 221 223 217 249 272 347 458 378 366 418 389 375 430 421 429 439 329 370 394 413 431 453 495 496 497 471 388 365 356 358 369 362 347 344 316 296 374 516 310

GFSMA_2pvu_pres_003.txt.gz
Presure
231 228 257 252 237 166 160 91 182 162 213 177 195 216 186 186 181 144 196 140 171 169 143 140 145 130 139 144 152 144 151 140 149 158 168 167 156 150 154 157 180 155 160
158 171 239 191 180 130 100 99 94 214 112 94 173 160 157 179 162 166 164 161 156 158 157 136 143 151 164 130 158 151 151 134 169 172 153 153 152 156 169 179 171 172 160
164 153 166 162 162 163 99 88 104 102 92 156 162 161 163 161 161 161 163 158 154 119 166 147 157 125 151 165 163 136 162 167 154 153 154 160 161 147 146 173 167 159 157
178 170 161 166 114 99 99 103 93 155 165 165 167 166 165 167 167 170 168 161 126 131 156 166 163 156 155 137 154 158 156 158 159 161 162 167 140 159 157 151 161 93 143
154 154 152 137 116 119 102 91 163 163 155 160 166 171 165 154 164 122 116 117 153 142 150 153 158 154 152 153 155 153 154 176 174 169 139 154 157 102 162 171 121 130 196
147 137 129 140 114 140 106 164 170 165 161 155 171 171 159 130 124 161 151 160 148 163 158 154 158 154 170 164 159 159 160 163 166 164 173 179 170 174 179 182 192 193 183
130 121 117 132 93 169 172 152 177 141 171 173 133 162 163 148 128 133 149 152 151 158 177 167 161 159 157 178 164 164 164 172 180 185 190 109 168 168 114 127 133 140 134
115 114 125 162 157 170 172 173 178 160 174 130 161 145 160 150 151 161 178 164 164 160 162 165 177 176 166 168 168 145 122 202 185 116 197 119 146 145 118 124 128 122 139
145 164 163 158 160 141 161 168 167 161 150 125 152 176 143 165 165 174 154 173 183 134 174 166 163 195 134 149 188 182 197 164 203 167 205 121 121 187 174 169 155 180 155
181 129 137 123 161 158 165 176 163 153 126 154 151 152 179 173 160 155 192 192 194 94 153 196 190 201 200 201 174 114 173 153 181 121 126 121 106 132 141 178 220 129 189
139 174 144 158 146 145 171 155 158 127 149 161 204 162 172 200 188 194 189 119 191 200 144 135 197 128 139 174 154 216 152 158 208 175 221 226 193 119 121 221 176 217 133
175 180 187 201 154 192 152 202 137 202 200 191 167 199 205 204 184 204 222 204 132 150 125 129 138 151 149 233 151 207 209 198 228 235 234 240 225 242 240 228 231 231 228
193 193 191 171 126 196 192 194 198 193 187 197 206 221 180 112 179 211 217 184 176 126 178 155 162 227 227 233 235 235 238 243 247 246 249 249 253 262 271 258 188 289 255
194 193 120 200 197 188 184 191 188 193 201 201 233 215 143 183 167 167 155 218 147 230 154 219 220 226 235 240 249 262 144 272 258 260 462 456 451 484 498 480 463 364 335
199 187 183 183 135 186 191 183 190 122 228 225 139 154 135 140 122 207 163 213 162 228 215 200 86 240 252 264 218 276 449 444 441 438 429 421 422 428 461 474 475 460 447
182 184 150 181 170 174 242 103 117 227 171 171 137 150 205 175 232 163 154 219 215 218 230 248 256 225 198 461 287 431 420 438 463 467 442 404 397 397 404 434 469 447 433
177 177 197 177 120 238 147 124 139 181 191 138 233 183 135 213 194 201 216 220 227 239 254 267 298 468 403 427 301 450 455 442 436 431 432 444 649 393 389 395 430 445 384
189 177 175 237 206 106 215 182 216 210 143 235 222 214 220 194 208 214 226 233 245 252 277 474 455 427 413 412 443 446 436 424 420 409 406 423 424 556 396 381 385 431 436
221 239 238 164 167 203 210 133 137 223 217 200 215 144 206 215 214 231 240 248 260 483 425 439 421 404 437 428 437 419 408 393 395 423 450 480 580 447 463 384 375 409 419
241 235 221 222 176 172 130 205 218 194 211 190 173 201 210 221 242 241 250 304 476 390 434 408 396 424 417 431 404 382 395 402 424 434 445 480 541 573 582 415 373 376 409
234 226 216 151 128 201 215 217 194 201 152 160 198 191 236 246 245 263 448 474 382 430 401 389 432 425 436 398 353 393 414 435 433 431 460 498 521 551 572 429 373 369 404
219 221 127 187 207 214 195 142 206 204 205 220 226 238 240 250 268 464 463 371 427 395 381 446 459 439 392 370 397 428 445 532 545 456 489 498 506 541 560 458 374 370 407
123 249 226 216 205 144 177 187 199 203 216 234 240 243 259 430 460 379 366 427 397 370 421 426 424 407 365 401 440 449 520 527 536 531 527 541 531 537 559 567 362 368 386
201 217 211 150 141 202 204 193 209 214 229 242 245 291 464 460 365 361 428 400 376 419 438 436 438 368 404 384 457 511 510 501 495 497 508 488 489 487 518 362 359 366 376
206 185 147 198 189 197 197 208 226 233 244 253 391 468 391 357 362 429 403 378 420 420 426 443 368 399 366 478 489 400 406 487 496 475 459 469 482 488 361 360 358 342 355
171 137 197 190 201 190 221 229 238 251 328 359 458 374 353 410 426 400 373 417 441 477 472 355 399 352 363 354 359 353 357 364 367 364 358 355 360 364 363 361 358 357 314

GFSMA_2pvu_pres_006.txt.gz
Presure
157 155 170 161 168 165 232 184 220 145 122 99 98 104 99 89 109 112 198 198 183 155 158 142 169 153 159 135 166 141 140 136 149 157 162 160 156 159 166 163 159 158 159
171 153 175 163 170 164 161 168 163 215 102 93 103 100 131 197 210 162 162 163 163 143 164 163 163 161 130 126 132 165 166 163 164 156 156 165 158 156 153 155 166 164 140
151 167 177 169 159 174 168 172 171 105 98 99 99 155 158 164 169 167 164 163 164 167 170 166 138 116 118 157 157 158 164 154 154 151 158 155 152 161 163 157 154 141 170
197 159 168 177 170 153 139 131 139 143 136 143 150 148 168 150 158 157 160 166 164 153 150 113 130 138 129 141 153 153 155 157 163 168 175 177 161 167 171 167 163 163 128
201 178 164 167 177 151 124 128 154 118 153 102 103 169 162 162 170 177 160 173 172 144 150 150 147 154 152 158 169 169 163 163 163 164 170 174 168 162 161 161 161 160 164
191 178 167 169 142 121 133 170 175 97 138 135 173 173 165 175 151 172 175 175 173 136 146 154 163 161 165 161 163 163 166 166 170 175 166 143 141 135 173 168 168 173 115
184 143 181 175 111 167 166 180 164 158 155 121 151 164 176 184 176 161 127 179 140 171 163 180 169 160 162 185 188 174 190 189 174 115 194 145 141 181 180 128 195 123 123
165 122 156 125 127 128 168 174 130 97 156 154 144 157 155 164 154 133 152 169 177 161 151 179 182 177 166 169 94 93 200 124 188 188 135 198 199 124 159 127 190 116 108
148 180 172 127 148 132 135 138 161 177 141 174 162 150 154 177 139 187 192 181 179 184 195 201 187 201 167 91 143 198 151 217 146 153 191 188 118 174 219 126 143 201 118
201 196 193 193 190 192 192 191 186 158 202 192 205 206 202 137 212 204 202 203 199 194 194 200 203 203 205 173 201 160 109 146 167 161 156 160 177 209 122 211 206 157 125
212 202 200 200 196 200 201 203 199 198 196 190 193 196 199 187 187 198 193 183 192 195 213 223 227 138 136 227 214 149 212 167 220 145 245 249 239 223 232 232 234 232 230
190 192 194 195 195 194 191 194 194 191 172 202 202 185 175 182 181 191 191 206 239 219 212 127 127 175 150 216 180 168 164 168 230 229 236 237 235 232 229 235 235 234 238
190 190 195 184 186 188 182 186 182 188 187 181 187 166 174 206 240 236 242 238 226 130 133 138 221 251 257 141 238 230 230 232 235 234 239 246 247 250 254 251 250 249 249
169 183 179 188 172 174 180 180 178 172 137 163 188 243 235 232 230 152 179 142 138 141 159 234 234 154 199 115 223 234 236 99 241 224 242 259 274 448 473 469 459 470 485
178 182 174 183 189 184 191 192 187 207 244 241 235 231 217 220 139 155 234 146 249 243 228 197 141 139 204 226 235 237 230 253 256 396 458 448 442 435 432 429 429 428 431
181 192 187 189 197 184 157 206 180 242 240 221 214 211 221 132 234 138 212 187 95 119 138 176 150 130 230 169 227 225 373 460 62 286 178 417 436 461 461 459 457 461 469
191 204 195 193 191 138 146 205 241 240 221 219 218 155 209 179 228 224 223 196 214 134 229 234 236 254 234 342 429 403 450 314 421 237 429 435 436 437 436 429 428 433 441
183 184 192 194 144 210 242 247 234 219 221 228 214 147 224 221 215 202 208 213 178 201 237 262 287 496 405 391 443 429 412 405 458 440 420 433 424 411 411 409 410 412 416
167 198 145 183 245 237 248 211 226 226 230 258 225 214 176 198 203 209 221 231 242 251 309 489 402 381 390 427 413 447 454 460 434 447 421 385 388 410 413 412 410 413 421
151 169 219 220 245 248 216 229 234 193 222 209 133 177 196 207 221 228 238 255 271 479 418 380 378 440 413 397 431 459 462 438 403 373 390 427 452 458 461 457 454 450 460
204 213 239 247 236 218 218 215 228 213 198 184 206 214 216 228 233 249 265 463 384 390 379 444 437 406 390 434 449 457 494 381 388 433 471 519 532 540 513 488 490 498 535
209 250 248 178 241 244 261 216 217 130 154 207 209 218 228 240 257 369 483 474 465 453 443 423 398 433 457 480 473 381 389 457 510 493 512 529 521 533 537 498 503 521 547
251 137 220 247 262 220 193 184 150 172 164 204 219 234 246 232 473 478 471 458 449 431 408 385 435 444 452 374 395 510 368 518 386 400 498 516 511 517 498 494 496 524 557
185 205 280 229 214 208 199 151 109 208 210 224 236 268 477 482 472 455 451 446 436 398 371 428 441 455 383 501 353 374 361 361 365 371 374 489 481 471 467 467 475 499 529
262 225 216 217 214 208 112 180 212 219 226 240 322 479 470 461 451 444 439 430 399 367 429 440 388 491 374 363 355 351 345 344 349 349 357 361 414 443 434 442 469 500 519
211 209 205 208 195 197 204 217 220 235 299 317 470 469 453 445 436 427 412 391 372 445 449 480 528 334 351 344 335 334 339 336 338 339 347 354 347 359 358 363 369 363 361

GFSMA_2pvu_pres_009.txt.gz
Presure
162 174 144 146 165 157 161 158 171 167 169 164 164 170 190 123 97 104 125 178 150 163 161 170 167 188 190 193 170 170 171 170 152 131 134 164 158 164 162 153 161 166 163
224 218 195 170 177 185 152 168 176 167 167 158 162 133 135 154 102 104 134 152 159 175 183 164 169 177 175 169 167 168 161 126 122 131 149 154 159 159 162 162 161 161 153
124 118 127 174 189 192 179 163 176 163 167 169 163 136 150 126 95 112 130 149 163 169 169 160 157 164 164 164 166 167 164 126 161 163 158 164 163 162 161 162 162 163 168
157 183 122 165 196 191 181 170 165 160 172 122 128 145 151 148 93 159 165 170 172 171 158 160 154 165 169 125 127 128 137 160 156 160 162 160 156 165 164 162 167 173 175
204 200 198 178 130 194 192 147 160 165 142 164 173 175 173 143 177 150 132 160 140 177 175 175 175 152 154 128 154 168 157 169 172 172 163 162 166 170 169 166 167 169 169
202 199 196 191 186 178 190 189 153 121 110 111 126 146 125 157 150 160 152 152 153 152 152 163 161 126 146 164 167 168 156 160 172 167 149 142 170 173 175 176 179 179 180
196 194 193 158 136 137 173 127 176 109 140 146 124 134 132 139 152 134 153 156 142 166 161 160 179 135 181 188 190 189 187 190 189 190 192 99 193 192 125 192 193 137 125
202 196 195 202 191 186 166 170 180 198 186 187 165 157 162 153 150 149 177 210 211 209 207 209 205 205 204 205 205 208 210 212 210 183 121 204 205 206 211 136 130 126 143
202 200 198 198 198 126 212 208 204 203 202 205 204 200 200 198 198 195 198 197 193 192 194 200 201 193 189 191 197 191 156 199 207 211 147 180 215 205 153 107 180 176 208
193 194 131 186 188 190 191 193 193 193 192 192 195 199 198 193 189 185 186 189 186 183 178 169 185 184 200 201 203 205 211 152 133 167 219 232 176 162 241 141 218 237 229
183 173 171 172 183 187 185 180 179 171 187 178 188 184 186 190 191 131 171 186 190 188 177 184 201 212 215 217 213 218 142 160 206 132 222 182 137 206 224 225 227 230 236
177 161 186 177 182 169 188 172 179 175 188 136 185 185 185 193 197 195 200 192 184 218 239 245 250 248 223 146 142 150 152 237 235 233 208 143 259 263 261 258 250 245 216
171 180 177 186 173 180 176 175 179 188 160 190 191 192 193 192 200 210 256 260 250 242 235 236 123 211 183 139 141 246 259 243 146 150 208 221 221 216 217 231 225 210 205
189 173 182 173 181 190 169 179 189 191 189 180 184 199 202 219 259 255 251 242 227 234 231 128 239 244 203 238 199 211 204 197 220 224 232 235 230 243 241 86 243 247 254
165 179 186 172 174 176 189 184 203 203 184 209 200 213 198 163 243 213 231 240 237 257 273 248 69 189 116 212 200 225 210 232 237 236 240 256 276 266 227 416 420 453 474
191 193 171 176 194 190 188 193 205 218 207 194 145 253 249 228 230 239 256 265 251 213 198 161 132 210 218 215 229 74 169 267 336 410 243 403 399 423 448 449 443 439 438
173 177 187 177 176 193 206 202 214 197 156 259 254 222 232 247 169 215 227 222 150 153 216 220 225 205 232 247 428 436 486 482 452 437 445 436 446 441 471 461 458 461 455
178 174 172 180 192 205 223 207 140 217 256 214 240 243 242 201 206 224 121 190 214 220 229 234 239 348 509 496 488 478 468 447 433 421 437 435 433 459 451 452 454 450 441
176 167 186 239 225 229 178 188 257 249 207 175 172 180 199 219 135 192 207 213 223 237 237 405 502 494 485 476 472 461 428 408 421 464 487 478 452 473 451 440 426 398 384
188 195 246 236 140 223 211 250 234 255 144 189 219 216 221 115 161 208 216 226 239 420 495 486 476 471 468 455 438 410 423 459 477 479 484 474 476 434 407 427 448 507 516
220 166 142 231 220 218 248 210 168 143 194 213 214 214 131 205 213 223 235 341 497 483 473 466 461 454 436 412 389 458 501 417 375 460 500 490 404 502 516 520 536 554 558
139 233 232 215 244 249 144 145 232 207 216 210 207 200 206 216 227 255 382 484 475 463 453 445 434 417 398 397 462 379 553 543 355 380 485 367 377 380 485 522 518 512 515
231 219 218 232 202 143 184 224 215 215 135 203 201 210 220 247 293 428 481 466 456 437 419 406 388 383 460 475 547 497 347 370 360 356 350 354 369 367 502 484 472 460 469
214 233 186 167 143 222 212 216 172 165 199 205 219 230 259 350 429 467 457 444 412 393 380 378 403 468 516 492 340 352 341 336 342 350 347 347 358 359 361 460 457 467 465
184 145 235 207 216 214 214 207 205 203 212 228 240 338 361 439 464 443 483 562 579 561 533 478 448 487 384 335 343 324 331 338 339 340 343 342 349 358 355 371 446 446 460
237 264 206 208 214 145 201 204 213 228 244 295 339 423 468 450 500 528 530 528 525 500 450 499 413 344 338 326 330 338 334 338 347 354 348 341 343 348 355 356 359 357 366

GFSMA_2pvu_pres_012.txt.gz
Presure
152 169 163 105 176 123 179 166 209 159 171 179 157 159 196 169 163 151 137 136 102 111 97 147 154 157 165 186 186 201 156 164 172 184 175 172 170 168 164 121 148 156 146
133 223 154 160 189 118 121 120 127 177 177 183 177 158 170 172 164 132 169 174 151 155 151 144 159 167 170 171 172 168 156 165 162 164 169 169 164 128 126 124 145 132 155
181 196 235 229 215 212 160 167 158 128 183 194 173 175 168 155 160 120 121 170 171 171 171 174 178 149 144 156 156 153 166 170 170 172 172 131 131 134 127 156 146 160 171
98 216 228 215 211 200 170 202 201 199 189 188 188 180 146 142 122 138 119 156 159 126 170 177 170 163 158 157 154 152 150 173 172 126 129 143 156 178 177 174 162 160 172
218 226 198 215 206 203 186 200 197 162 184 184 188 175 159 114 109 110 115 134 129 135 158 155 157 146 161 162 154 148 159 166 162 158 136 177 169 153 149 184 181 103 163
222 216 208 211 199 197 198 194 194 184 185 184 177 165 176 126 101 187 191 197 187 154 175 165 178 145 172 175 175 186 176 187 190 185 191 184 183 184 115 188 186 184 175
213 208 205 205 210 207 203 203 204 202 200 204 125 212 206 206 205 207 207 205 205 205 208 207 208 200 199 201 204 205 205 204 203 202 204 210 212 212 212 211 207 202 200
211 215 200 197 195 196 196 196 195 193 192 191 192 192 191 196 187 184 187 188 191 191 189 189 188 186 184 184 187 187 187 188 187 180 182 178 180 184 164 192 208 134 132
182 185 185 184 186 187 186 184 181 179 184 188 181 181 176 142 175 197 181 188 201 180 193 185 194 197 195 200 200 198 203 196 189 207 205 203 207 208 211 133 129 126 178
183 184 182 151 181 176 175 169 182 182 189 178 181 181 184 195 174 178 190 187 189 188 190 188 193 193 200 195 211 214 212 212 216 217 217 219 154 225 219 159 144 153 226
181 180 177 170 163 182 170 173 181 178 177 181 190 182 183 194 190 174 176 189 181 180 185 196 200 205 197 203 213 225 226 123 125 147 241 148 243 243 176 252 255 254 256
178 176 180 168 172 176 183 175 183 172 181 174 181 173 165 185 187 196 196 211 201 189 189 192 199 209 257 263 213 170 255 254 253 251 248 247 209 248 147 131 204 244 246
175 180 171 181 183 182 179 178 187 185 173 188 168 166 180 193 201 201 227 222 201 246 269 142 217 261 251 228 230 236 239 242 224 127 130 183 244 223 220 216 212 205 201
188 172 185 167 181 176 183 159 173 179 181 191 183 188 198 230 237 221 207 276 269 141 217 244 259 273 264 250 241 235 171 134 201 213 212 219 221 226 231 233 236 239 234
179 163 170 168 176 180 174 179 174 176 192 171 206 246 235 227 221 246 211 238 266 279 226 199 218 202 231 234 135 147 208 103 224 227 125 234 241 244 246 251 253 258 262
174 177 178 181 176 180 180 203 207 190 210 250 242 236 189 188 140 230 261 254 241 176 202 205 142 123 143 213 219 224 228 231 235 248 178 364 264 494 493 488 480 236 495
161 177 188 199 198 199 184 196 234 256 247 238 220 226 256 241 254 244 234 201 223 223 232 226 126 131 132 220 137 65 248 419 488 479 388 465 467 467 456 453 473 465 459
181 190 182 173 189 200 200 264 264 230 176 220 251 253 250 250 225 157 217 222 225 216 137 139 218 222 216 496 507 496 482 473 469 456 446 442 435 429 421 426 476 500 516
177 184 192 194 199 213 255 238 221 221 223 251 231 263 175 151 219 217 172 184 197 218 226 231 332 506 500 492 481 468 456 443 422 410 407 406 449 524 516 474 402 407 405
186 192 198 205 237 203 179 139 217 239 250 245 221 151 200 216 206 171 216 222 230 240 383 496 484 470 461 453 429 423 404 384 399 445 545 540 537 533 478 463 387 384 394
193 195 186 188 255 239 220 224 249 246 171 145 220 212 205 206 212 215 229 251 342 475 478 459 497 513 508 492 475 427 407 479 534 494 493 406 368 384 390 380 373 378 386
196 212 268 238 228 222 240 246 239 152 188 211 209 197 207 213 224 239 322 356 478 458 504 506 520 579 578 562 553 507 532 457 426 372 354 360 360 353 357 358 365 369 371
212 258 239 221 241 242 230 243 165 213 204 199 204 218 219 232 309 339 452 466 503 516 508 509 523 522 523 498 459 436 403 349 342 353 331 331 359 351 353 354 359 363 397
242 231 217 241 216 188 177 217 201 198 196 210 217 228 279 308 362 483 477 504 496 505 499 493 483 467 448 438 405 342 331 334 330 342 342 342 352 347 346 351 353 359 364
222 221 248 149 273 224 177 196 200 198 212 220 251 302 306 360 475 502 501 483 513 475 449 440 430 443 369 339 326 325 324 339 345 360 353 346 351 356 347 346 353 351 352
233 168 234 221 204 164 165 200 206 218 233 285 297 317 371 471 497 490 468 489 435 437 408 407 361 337 331 325 330 339 350 344 340 345 348 355 351 355 356 340 353 351 352

GFSMA_2pvu_pres_015.txt.gz
Presure
102 201 123 126 94 157 215 210 238 194 214 219 156 150 156 175 172 182 179 169 164 171 173 133 115 153 168 96 119 154 158 163 163 161 163 158 187 212 171 179 186 182 172
159 191 168 90 202 183 213 227 161 216 217 199 180 178 198 200 180 189 182 172 175 158 152 125 120 117 128 170 169 170 174 177 153 165 183 179 156 198 191 176 172 175 178
101 88 182 146 91 207 214 231 219 215 205 204 208 203 197 191 190 189 190 178 180 176 124 110 108 114 144 159 157 161 175 177 170 157 143 155 159 148 131 166 170 177 150
141 89 150 185 212 193 226 216 218 207 199 204 201 197 199 197 190 181 183 179 190 135 100 108 108 141 168 137 141 141 145 159 143 149 164 167 164 150 166 140 161 150 139
92 193 186 220 207 222 216 212 206 206 208 206 204 205 206 206 205 211 165 157 190 188 208 207 205 203 203 202 198 196 195 194 186 170 171 177 173 181 180 179 173 172 141
161 84 207 197 218 220 206 204 205 202 200 200 200 197 193 194 196 197 195 196 198 198 195 187 184 192 185 185 191 198 194 195 195 196 197 197 198 200 204 206 205 198 194
170 211 200 187 191 192 192 187 189 182 190 192 187 188 186 185 183 193 186 187 184 182 184 183 175 190 194 180 183 189 189 190 197 189 189 188 188 189 191 190 189 189 187
142 193 179 192 191 182 187 175 177 181 178 183 180 172 185 176 172 182 176 180 179 186 174 180 178 178 191 186 185 206 191 179 189 187 190 197 197 193 193 203 203 191 191
196 197 183 190 181 184 178 183 183 180 182 182 178 171 178 178 177 169 188 184 188 197 177 180 182 189 191 195 192 195 202 200 201 202 204 204 203 203 203 198 204 206 209
180 188 191 179 178 174 177 175 183 171 168 164 185 185 171 181 178 185 180 185 181 182 188 184 188 195 197 204 214 201 210 233 219 213 213 214 210 218 231 125 127 227 228
192 191 183 182 173 182 185 179 174 173 186 180 178 178 183 174 180 179 159 181 185 178 176 174 185 192 212 207 209 220 172 224 195 170 218 265 262 137 266 266 270 270 263
189 186 182 178 181 171 183 187 175 179 179 173 178 174 183 169 175 169 183 175 157 161 182 190 233 211 226 237 246 214 225 220 131 162 243 250 252 254 255 251 243 245 209
190 182 180 182 184 171 180 178 174 172 167 176 162 202 202 201 202 202 253 188 224 248 237 228 248 224 239 251 201 251 196 266 281 267 261 253 246 207 192 134 197 243 243
189 177 188 176 168 180 180 175 178 178 185 192 183 187 196 214 288 274 263 253 237 235 258 254 250 245 264 262 244 237 234 230 230 229 230 231 182 233 228 218 216 214 215
178 174 173 178 182 175 180 173 171 183 183 188 202 211 290 273 259 244 144 266 265 259 268 254 228 220 227 226 225 221 230 228 227 180 226 224 224 219 238 237 233 235 247
180 186 187 185 182 176 174 176 181 188 191 206 214 281 259 244 233 262 253 242 231 255 193 204 70 219 220 218 58 224 216 194 242 245 251 252 257 259 263 357 188 451 495
187 186 185 176 171 174 182 188 189 193 203 219 175 250 224 151 244 242 281 223 221 191 223 213 215 157 182 161 241 250 437 512 500 491 482 470 466 464 467 466 69 459 455
182 180 171 174 179 180 188 186 194 203 171 263 246 227 257 231 281 258 219 154 166 214 222 166 237 244 249 356 510 536 528 523 517 512 497 470 447 435 432 418 76 412 489
173 172 183 180 188 180 193 166 205 222 258 235 239 254 242 272 212 178 179 197 207 213 234 245 334 347 515 525 529 548 547 546 592 575 560 542 538 447 415 456 543 535 537
177 180 180 185 181 193 191 206 224 201 172 254 241 278 208 219 201 207 216 172 186 242 314 340 536 528 506 531 529 533 551 543 544 530 518 494 495 503 495 458 404 373 370
179 185 182 188 179 186 208 229 254 220 257 235 275 218 210 193 214 226 234 241 309 326 433 485 510 512 528 507 481 473 476 466 456 453 475 459 423 371 363 365 361 353 353
183 127 192 191 137 208 235 234 249 253 260 219 212 181 174 224 136 238 291 311 325 477 475 509 507 481 459 451 440 430 432 438 394 450 359 342 350 348 342 340 347 348 350
178 192 188 188 213 251 209 253 261 270 206 208 193 218 224 228 260 310 314 333 460 501 542 483 461 441 438 421 413 369 354 345 340 336 329 338 357 351 358 363 363 358 352
188 186 204 231 230 237 263 258 233 165 186 163 198 227 232 302 306 319 343 476 601 601 463 457 429 423 432 343 331 325 321 333 354 356 348 345 352 354 360 356 353 362 349
195 215 192 207 251 262 259 203 197 161 202 219 225 258 301 303 321 367 478 529 600 453 454 404 384 347 333 332 320 330 338 333 335 335 331 340 341 339 355 349 358 349 344
215 158 217 255 271 216 196 183 164 211 221 220 295 290 300 317 362 526 477 472 462 414 372 402 353 365 330 317 327 324 316 319 320 324 336 335 336 353 355 374 358 337 347

GFSMA_2pvu_pres_018.txt.gz
Presure
94 82 102 80 90 181 183 108 182 192 183 219 209 218 221 207 199 208 205 183 201 200 194 190 191 184 176 179 174 167 112 105 172 133 173 172 171 173 177 180 160 178 170
180 182 92 147 86 87 175 131 185 199 211 227 219 221 215 209 206 205 190 196 196 187 194 196 196 193 187 181 173 109 108 111 117 119 163 144 147 163 173 176 184 161 153
174 99 86 96 92 93 132 187 183 89 212 225 217 215 212 216 208 206 203 206 208 208 205 207 188 212 214 105 211 193 111 187 185 180 179 173 137 134 136 160 138 146 165
111 83 83 122 96 110 115 182 206 202 226 208 218 213 208 205 202 199 196 194 195 196 196 197 196 195 194 127 199 202 203 202 205 206 205 203 201 199 190 180 166 143 172
183 99 95 104 111 111 197 181 204 203 203 206 188 194 192 186 188 186 185 185 182 182 183 188 187 184 183 187 186 183 182 196 187 186 184 183 184 197 202 202 203 203 197
108 185 188 150 102 110 194 185 196 180 192 184 178 187 188 187 178 184 184 181 183 183 187 182 193 191 182 192 189 181 181 182 181 174 186 184 185 183 190 189 189 191 191
143 190 106 188 127 202 173 194 191 181 193 189 187 186 187 180 180 186 180 182 184 178 182 183 183 176 189 172 171 173 190 171 190 173 176 166 189 182 177 180 184 186 185
191 96 104 109 167 201 202 187 188 185 180 186 176 169 174 188 179 167 176 160 176 191 186 184 183 182 188 184 184 193 195 188 187 184 188 190 193 195 194 205 208 206 194
98 218 145 108 111 199 192 189 176 193 176 184 183 176 183 179 184 179 184 174 183 176 178 190 200 198 194 192 182 196 203 196 191 191 182 190 194 202 212 220 210 204 206
215 206 184 120 197 190 183 193 183 189 185 182 181 183 186 180 164 176 171 175 177 190 191 189 192 193 181 256 262 261 252 257 202 197 233 253 245 243 220 164 226 227 227
207 210 202 197 191 182 178 187 188 184 181 184 183 174 182 177 172 174 164 150 156 184 182 207 275 264 256 251 246 245 241 240 237 238 243 242 238 236 236 227 226 227 229
203 199 193 185 186 178 191 185 192 184 181 183 175 175 180 172 173 170 181 180 183 201 263 259 237 237 234 248 251 250 248 238 253 260 257 257 257 260 263 222 217 157 264
197 193 185 192 178 186 186 194 187 191 174 184 178 181 169 179 188 185 197 207 219 271 250 225 243 246 251 246 245 266 274 269 267 264 198 255 205 252 208 258 261 266 260
197 190 188 190 193 197 195 191 178 185 190 190 183 178 188 184 190 203 211 223 279 248 245 262 249 245 280 278 260 249 240 223 223 228 123 228 227 228 229 233 235 236 235
191 190 185 194 192 184 188 181 191 189 186 179 183 189 187 197 196 213 229 271 233 276 257 236 279 245 224 213 222 222 214 212 177 214 184 217 226 234 239 242 233 228 226
193 190 193 192 190 183 186 192 185 177 172 184 187 186 201 192 211 230 252 237 264 259 281 216 220 220 208 206 230 240 248 256 302 255 537 532 532 541 553 545 535 523 498
193 195 195 185 187 193 187 185 178 183 186 186 194 196 194 213 166 231 257 256 273 244 226 206 211 228 237 205 264 341 352 466 497 556 553 546 546 552 563 590 541 529 522
198 198 187 190 188 173 182 175 187 184 190 199 192 193 213 253 217 271 259 249 222 216 205 222 92 244 313 321 331 492 514 534 503 479 499 511 522 537 554 573 595 591 537
192 189 191 177 175 180 179 184 131 191 200 189 204 213 256 229 272 257 203 211 180 202 236 230 292 319 321 499 558 545 486 468 467 468 476 469 471 485 493 497 508 514 518
189 181 175 179 179 184 161 178 195 194 192 206 220 208 251 274 242 210 189 204 227 240 261 320 319 350 636 634 493 464 452 457 457 452 367 367 380 384 394 404 409 410 406
184 175 181 179 154 174 189 198 191 197 206 242 229 264 271 223 208 193 186 234 241 270 318 350 499 629 522 460 441 439 451 397 348 339 341 341 346 345 353 352 352 350 351
176 182 185 133 191 186 198 191 202 167 261 218 276 251 203 170 187 224 236 251 312 335 352 510 512 472 426 424 438 398 338 345 328 353 354 356 357 356 359 364 365 368 366
183 171 185 188 189 193 193 190 173 247 250 271 224 176 201 205 207 236 255 312 324 355 495 503 434 409 428 379 380 338 336 329 339 346 327 339 339 351 360 352 351 355 368
170 185 191 193 188 202 152 257 219 273 239 212 174 189 208 212 236 260 312 318 444 489 472 413 393 392 396 372 338 319 310 332 339 332 319 328 333 330 348 349 359 359 362
185 196 191 184 208 258 238 259 275 222 203 121 195 214 221 236 295 310 318 498 492 449 394 384 348 345 370 331 311 329 327 316 316 323 344 337 333 334 361 365 362 361 371
191 188 207 228 252 222 289 233 219 141 172 205 212 219 238 291 318 322 525 499 435 388 383 415 411 366 323 313 323 325 313 305 305 303 339 301 356 341 366 369 350 353 357

GFSMA_2pvu_pres_021.txt.gz
Presure
84 85 125 86 106 184 167 99 92 84 107 185 180 179 186 211 224 222 219 216 212 211 210 174 204 202 199 196 197 195 197 198 191 185 168 147 181 162 112 161 152 187 177
111 120 188 136 143 110 118 147 99 94 108 110 124 191 196 217 222 221 221 216 214 209 207 205 202 201 201 201 201 202 204 194 196 215 207 189 145 132 179 178 157 159 159
116 100 104 104 181 195 86 83 89 114 107 110 175 204 208 197 211 191 190 196 192 189 189 185 192 190 189 188 189 201 198 194 195 194 194 189 148 182 172 168 171 185 181
101 116 122 117 111 119 118 118 190 184 106 191 221 210 205 184 189 185 189 183 186 181 185 185 185 184 183 181 181 181 183 181 182 182 184 184 190 189 190 198 201 200 201
110 103 112 105 96 99 116 112 115 114 108 111 197 210 198 182 191 187 187 184 179 185 186 189 195 190 179 179 180 180 176 188 191 184 181 181 182 182 180 182 181 182 182
103 104 107 109 112 114 124 210 95 98 110 111 210 203 194 185 183 191 187 178 177 176 187 183 187 186 178 184 185 189 186 179 181 173 177 183 172 191 180 181 181 181 184
109 99 113 116 112 107 99 206 193 196 111 180 202 193 192 179 190 187 179 188 179 185 182 186 188 188 184 169 171 182 183 192 197 196 197 200 204 197 182 178 191 184 178
102 95 119 98 105 105 201 193 199 219 174 202 196 189 193 171 192 185 186 190 183 176 186 178 177 174 177 181 173 174 178 193 187 211 277 282 175 191 200 192 205 212 209
116 159 146 109 158 195 209 217 213 203 201 200 193 181 185 182 191 191 185 185 187 184 185 182 176 173 175 188 191 186 204 252 272 256 248 242 255 268 267 266 261 256 234
202 183 147 226 148 217 211 208 204 202 191 191 184 180 193 182 188 182 177 177 191 186 182 180 179 189 192 194 208 223 260 252 247 232 253 259 227 232 237 238 241 247 173
185 180 215 208 211 210 206 204 199 190 186 188 180 191 187 191 187 187 177 179 179 179 180 177 187 185 200 198 217 263 243 231 263 260 258 257 260 259 260 260 256 235 224
184 198 216 207 213 203 203 195 193 185 191 192 190 191 194 190 183 181 189 189 178 172 179 161 187 196 209 217 255 241 256 256 265 270 268 266 267 269 269 268 271 278 286
190 189 180 207 201 203 201 194 192 188 191 193 195 184 185 181 186 189 182 175 167 166 188 193 188 208 237 235 275 268 264 261 255 250 228 217 216 218 219 220 222 225 227
186 178 177 190 200 199 199 199 193 190 193 199 177 182 188 194 185 187 178 182 184 198 189 202 218 185 256 270 257 247 246 208 202 203 195 197 220 209 216 233 232 232 207
171 172 175 192 204 204 196 202 197 194 191 187 189 194 189 175 183 185 190 156 197 197 206 230 241 276 260 246 237 201 201 196 201 232 251 256 345 347 346 342 345 364 376
173 173 176 181 205 203 198 201 194 198 184 188 181 174 182 181 192 192 179 195 210 221 260 247 265 247 170 198 206 197 205 246 338 349 363 459 565 555 544 534 523 528 540
178 167 179 203 205 208 207 197 197 185 191 181 179 182 190 192 197 195 200 211 228 253 284 246 231 202 209 228 237 252 319 359 559 636 574 526 504 498 502 499 487 487 489
173 169 182 203 205 206 200 183 186 182 182 182 183 192 194 199 194 205 212 270 231 265 236 220 202 222 187 236 271 336 523 518 493 477 473 479 486 410 390 373 369 372 397
181 177 190 206 207 197 201 182 187 181 182 175 191 195 196 193 207 187 261 234 252 225 206 213 225 227 245 311 532 520 487 457 451 467 450 370 369 357 345 352 342 356 353
174 182 195 200 205 193 187 182 181 182 192 191 199 194 197 206 239 233 273 237 221 199 223 227 238 277 400 524 486 441 427 442 439 388 348 347 338 353 353 353 353 353 358
179 186 200 210 184 188 184 184 189 191 191 197 192 206 227 264 292 229 218 209 207 227 233 240 297 524 512 444 418 409 369 352 369 351 322 330 349 343 341 344 353 347 348
182 196 177 190 187 183 190 190 190 186 192 197 216 264 218 254 225 223 200 207 224 233 249 342 546 505 431 409 404 343 385 354 326 344 334 340 332 343 351 346 334 341 351
193 189 188 185 186 190 190 186 193 194 207 235 212 274 238 177 201 205 218 224 229 289 324 506 540 426 404 435 413 371 341 326 331 345 319 320 318 331 320 361 368 354 379
179 184 159 185 188 190 183 194 201 223 233 245 248 220 191 205 213 180 227 234 290 317 474 529 414 398 423 411 368 340 314 305 328 326 304 304 313 317 306 381 389 388 377
138 182 188 189 184 199 189 214 183 176 265 233 215 204 210 207 219 229 242 310 312 502 506 412 387 395 396 369 335 312 312 318 307 311 300 310 304 308 340 392 397 435 434
184 188 187 200 194 144 263 205 286 241 211 206 201 206 212 219 230 265 315 308 501 489 407 381 369 372 362 342 331 319 304 309 296 303 302 302 299 305 320 410 452 447 443

GFSMA_2pvu_pres_024.txt.gz
Presure
116 199 189 150 128 96 167 172 116 109 91 187 85 92 103 139 107 187 190 182 207 221 213 212 212 209 207 206 203 203 202 201 202 202 203 201 191 204 204 211 178 174 174
205 102 102 143 111 108 103 103 116 115 148 134 116 185 177 117 182 138 186 189 201 200 185 187 195 191 194 192 190 197 196 195 195 194 200 199 190 186 185 187 184 184 195
90 207 105 119 101 96 115 118 113 111 86 111 121 107 179 102 110 111 185 193 202 189 183 182 176 177 185 178 183 181 180 181 182 182 182 182 186 186 196 197 192 198 191
173 204 162 83 95 109 107 113 111 89 97 175 125 125 196 114 188 194 171 211 196 193 182 192 180 190 182 177 172 172 176 181 182 174 170 172 176 177 181 184 183 181 184
153 129 90 110 116 106 104 101 114 84 108 108 188 156 198 204 195 177 207 208 193 195 184 172 192 181 177 185 188 193 197 182 192 186 177 189 187 187 173 170 175 183 177
92 124 94 146 110 190 103 101 91 110 107 104 204 203 205 195 190 191 203 199 191 187 188 173 192 185 185 184 190 194 194 189 182 180 183 183 178 182 192 194 190 181 185
84 114 108 199 180 108 108 84 228 221 103 120 211 142 191 192 214 212 196 195 192 181 191 183 189 194 187 189 186 183 188 189 186 180 175 183 189 194 194 191 197 208 314
114 114 110 176 193 200 89 177 104 196 145 202 197 202 213 211 205 201 196 192 183 187 195 184 193 190 190 186 182 192 188 183 185 182 187 193 193 198 205 227 277 264 253
84 152 178 206 192 95 160 213 213 212 182 218 223 209 208 205 201 190 194 193 181 192 194 193 196 186 182 191 195 193 186 171 181 184 190 200 199 207 251 258 228 249 260
146 136 189 172 184 187 197 187 212 220 208 209 208 207 204 199 191 191 191 193 195 198 202 194 187 190 199 187 185 178 184 185 189 202 198 198 239 269 235 273 274 268 264
197 184 183 193 185 185 190 185 206 208 210 205 205 202 201 194 192 188 187 190 195 183 186 189 193 192 185 190 183 188 192 203 198 215 229 260 243 252 272 268 254 250 249
205 191 190 184 187 188 166 196 188 199 178 202 196 201 199 197 197 193 192 188 180 181 187 186 180 182 184 187 191 198 198 212 222 264 252 252 269 247 204 203 195 189 196
194 161 189 187 152 190 171 174 177 173 209 202 201 198 197 201 201 193 193 194 187 186 174 176 181 184 190 194 202 204 214 226 262 238 259 224 189 195 219 221 228 227 227
190 203 191 181 183 186 172 173 173 173 169 203 204 205 200 202 200 202 191 190 180 180 154 175 188 190 198 192 208 212 264 235 245 227 191 210 209 199 198 195 250 253 266
192 202 196 189 165 180 172 175 175 170 203 209 209 207 208 208 198 187 188 180 181 180 182 187 198 195 205 212 251 274 243 249 184 213 207 219 230 240 291 356 662 638 619
202 202 198 191 185 178 174 171 177 170 191 207 208 207 192 191 198 184 185 178 187 192 188 195 198 212 247 258 261 257 204 216 215 223 230 249 350 536 505 498 495 493 488
206 195 199 192 189 181 178 171 179 178 193 205 205 205 206 190 184 173 180 193 188 198 194 204 232 261 253 253 231 219 219 232 234 250 340 507 476 486 470 447 435 425 422
206 200 200 193 185 182 185 179 181 180 197 201 209 191 188 183 131 193 187 196 199 207 223 287 259 142 226 211 225 228 237 253 322 505 460 444 453 267 393 387 372 358 359
211 203 202 190 185 187 186 182 184 185 204 192 188 188 185 194 192 191 199 204 216 268 244 150 227 209 208 223 234 240 298 509 469 438 421 448 363 374 358 343 338 339 344
214 208 195 191 187 188 188 188 179 204 191 191 184 192 193 187 194 201 214 235 299 260 144 217 202 216 227 235 251 334 481 436 419 420 430 362 360 351 338 344 331 329 347
213 206 194 192 189 187 185 182 188 185 184 186 194 193 189 193 207 232 252 259 172 217 214 215 221 233 237 295 342 447 425 425 425 419 370 339 339 344 337 325 326 327 324
211 198 194 184 178 181 180 193 172 186 186 193 184 197 205 217 236 292 253 198 219 212 215 225 237 253 329 522 437 406 426 410 377 372 344 326 339 322 314 318 311 316 318
203 194 181 176 182 177 189 179 184 191 192 190 190 178 231 252 271 236 211 211 206 218 230 239 285 334 521 436 415 390 392 374 356 348 326 315 320 313 316 307 308 318 311
190 180 180 177 185 183 180 185 193 186 200 181 221 198 278 251 190 194 210 213 218 230 242 330 437 497 447 404 386 384 364 339 332 327 327 309 315 310 308 300 304 316 410
179 174 177 187 173 183 190 189 153 137 209 153 270 272 197 209 206 208 213 222 229 244 330 481 472 436 399 373 368 367 347 334 323 313 323 310 313 305 306 299 301 335 405
174 174 175 182 184 191 192 139 147 154 242 203 245 225 209 208 205 218 222 233 261 335 466 445 414 393 372 364 363 349 342 341 327 312 319 307 312 300 300 301 299 337 386

GFSMA_2pvu_pres_027.txt.gz
Presure
130 96 85 108 154 126 183 109 147 191 115 104 104 123 162 110 90 113 112 159 96 193 152 110 106 186 205 196 183 186 175 192 194 193 193 193 190 187 192 193 195 195 199
126 103 105 199 205 88 100 201 207 183 101 106 120 111 108 107 109 106 107 153 97 96 198 188 110 184 206 193 181 178 188 175 177 173 181 180 179 189 188 191 199 198 189
105 103 211 215 209 140 117 153 219 97 102 118 110 110 109 113 104 109 109 102 195 133 185 206 180 203 203 195 182 180 181 181 177 175 175 175 177 177 170 175 176 168 172
107 208 119 140 141 132 132 122 124 103 107 118 95 102 109 110 109 105 102 199 199 201 197 194 191 207 201 192 190 185 167 188 183 173 176 183 178 176 184 191 192 190 186
198 85 117 116 120 127 141 106 97 115 119 103 100 95 156 110 110 106 158 160 203 206 187 189 215 202 197 193 183 191 180 179 189 186 181 187 188 188 188 188 187 190 186
188 188 177 206 96 95 91 116 101 179 160 169 168 101 161 135 106 193 213 213 205 194 192 212 208 197 200 193 184 185 191 186 191 194 188 184 184 185 189 181 185 184 182
191 98 102 92 99 89 90 138 113 113 85 196 193 96 174 216 97 215 209 195 201 216 212 203 203 199 192 192 180 189 192 188 193 199 176 182 188 193 193 194 193 186 184
92 124 98 99 91 100 117 186 110 109 211 199 196 192 220 214 220 214 220 218 211 204 204 202 197 192 194 191 188 189 192 192 184 182 182 190 190 184 179 181 185 192 193
91 100 153 194 185 133 184 145 185 140 199 189 185 190 185 223 208 215 209 208 207 205 201 201 194 190 189 188 190 193 189 184 187 189 191 183 187 183 186 192 195 200 206
236 225 222 160 203 189 160 173 178 185 190 190 185 188 185 222 207 213 178 209 212 207 205 200 195 197 192 191 188 186 188 188 183 182 184 185 191 193 192 197 199 195 213
237 233 229 217 201 215 185 185 184 179 182 188 188 170 185 179 172 217 197 204 206 204 202 202 200 203 200 208 195 197 191 184 186 191 194 194 199 205 202 210 223 241 285
193 121 230 206 191 165 221 194 197 185 180 190 185 184 172 176 175 174 208 208 207 205 206 206 207 202 202 198 196 191 124 194 195 193 200 206 195 221 234 261 279 271 249
206 247 244 228 185 149 222 201 144 199 181 183 176 184 172 177 185 171 195 208 205 205 207 207 197 193 195 193 185 193 194 195 201 204 190 220 238 276 265 216 208 197 195
241 241 244 236 228 224 223 210 195 203 189 170 171 179 175 169 181 178 175 210 207 215 200 193 205 194 157 193 192 194 197 204 212 213 230 271 261 263 201 222 213 234 226
236 219 229 244 235 225 221 213 195 196 198 188 180 178 176 171 179 178 180 198 203 207 193 189 192 194 193 195 196 203 208 210 231 280 266 262 197 215 218 230 230 240 251
147 232 214 220 227 228 224 215 209 195 201 193 181 187 180 185 180 181 182 188 204 193 194 186 190 194 199 205 209 216 262 287 265 249 210 221 221 231 236 248 303 477 461
241 234 226 224 229 232 225 217 207 190 202 196 190 184 188 184 180 185 182 199 192 190 190 193 197 206 210 218 288 289 267 232 194 216 228 238 246 259 425 467 449 478 447
246 235 232 220 221 235 230 219 210 200 197 197 197 190 187 178 187 177 199 183 188 193 195 196 207 214 246 241 272 260 201 217 227 238 245 262 479 457 443 436 434 404 378
248 250 233 228 216 233 231 221 212 206 207 200 193 190 179 187 174 200 185 185 193 198 153 216 239 264 284 238 215 214 225 229 243 258 316 458 435 441 442 409 380 361 351
246 249 243 232 217 218 230 225 216 205 207 197 189 181 185 179 195 190 187 194 201 190 230 230 262 261 185 217 218 224 235 249 294 482 431 422 439 408 384 367 349 333 340
243 251 251 233 219 216 232 227 218 213 199 184 181 185 183 189 186 193 197 160 177 233 255 282 254 226 227 221 228 241 254 515 458 414 414 399 388 369 361 345 325 330 321
241 252 259 228 215 236 232 224 216 205 182 181 182 181 187 185 193 137 210 223 231 258 272 248 222 217 226 233 248 260 490 435 405 391 391 382 372 352 345 331 323 315 305
241 256 259 219 208 233 225 219 202 181 179 177 187 183 192 132 161 214 227 226 285 259 232 222 217 229 240 248 360 468 421 397 377 366 380 357 346 342 331 328 315 312 312
261 255 228 208 217 226 220 188 180 176 183 183 187 161 132 207 219 227 247 273 252 210 233 233 228 239 253 454 434 414 390 377 355 354 370 351 340 333 319 328 315 312 306
249 225 205 215 224 218 183 175 184 184 182 193 195 147 209 222 219 273 166 212 212 222 225 230 242 324 428 401 372 354 335 335 325 348 349 305 302 334 320 327 314 306 305
210 206 219 221 183 175 185 186 183 191 164 198 202 213 224 232 274 259 219 213 225 219 235 244 427 402 376 355 340 346 344 352 320 306 311 301 300 303 307 319 319 311 299

GFSMA_2pvu_pres_030.txt.gz
Presure
93 89 94 94 86 84 108 106 117 126 192 151 201 116 149 120 108 121 115 109 108 110 106 111 107 95 172 197 194 186 211 187 207 192 184 179 183 175 175 174 180 177 181
89 93 96 92 91 220 104 213 159 184 154 124 179 201 174 99 110 194 99 103 103 111 104 106 103 106 204 199 193 199 202 189 209 196 189 187 169 181 178 178 174 172 172
89 89 96 88 95 199 100 221 220 216 215 123 117 104 123 109 107 123 102 96 97 103 180 103 118 200 202 199 201 202 190 201 205 194 194 185 180 173 183 182 175 176 176
94 96 100 94 93 102 137 149 196 211 134 209 97 125 107 105 110 114 108 112 97 104 128 135 117 154 204 203 208 200 190 207 200 196 192 187 192 184 177 186 188 188 179
135 97 101 93 90 139 196 111 145 116 116 99 103 157 113 108 147 164 131 125 140 210 141 218 216 213 216 211 197 193 213 208 199 199 192 189 181 189 194 187 187 190 189
199 175 100 103 93 200 199 180 175 162 160 94 90 203 179 210 110 129 136 130 170 223 216 214 211 208 203 202 212 215 203 205 197 196 193 192 179 188 189 190 188 192 196
136 94 104 98 95 133 113 136 195 101 78 92 90 88 104 132 110 201 203 198 182 181 235 227 226 222 220 215 209 207 205 202 195 192 193 192 191 190 191 191 189 187 187
211 137 118 203 231 224 117 97 96 94 94 104 111 185 181 189 166 194 170 193 192 186 197 219 190 183 215 211 212 210 203 203 202 199 192 191 188 191 192 190 188 192 192
213 158 247 143 217 178 96 91 152 176 204 188 186 99 158 180 155 189 196 191 183 187 180 172 199 173 204 205 209 206 204 201 196 195 196 192 185 188 192 197 199 194 188
177 205 204 123 215 224 102 215 230 212 127 104 97 175 186 173 183 182 183 125 186 173 173 177 172 175 198 209 210 208 206 205 202 199 200 196 200 204 149 187 195 196 194
104 104 105 104 200 227 114 246 235 117 187 193 203 174 217 184 188 184 185 195 182 182 175 179 174 174 173 200 211 211 210 211 212 209 201 198 199 199 195 193 191 195 201
229 218 199 207 211 214 225 203 202 118 117 226 145 218 187 210 196 212 186 184 174 183 177 171 172 182 177 181 203 205 209 213 209 206 146 198 196 198 203 204 207 211 217
248 244 238 238 212 153 220 207 235 227 237 233 228 93 224 216 194 201 202 187 171 181 174 181 181 184 180 180 192 211 213 195 196 197 198 196 201 206 215 178 224 250 281
216 245 247 237 249 271 248 251 229 225 228 244 232 232 225 222 214 196 208 198 189 180 185 182 185 190 182 188 193 204 193 195 197 194 197 203 170 221 250 257 305 223 208
251 209 218 232 269 266 253 140 112 239 242 248 234 228 225 220 214 210 199 203 201 190 184 190 192 180 191 188 198 192 197 195 195 183 212 220 254 272 292 206 220 202 224
233 228 237 243 254 260 264 248 237 211 230 216 236 237 229 223 219 211 195 203 207 201 198 189 182 188 184 185 192 198 186 137 206 219 248 249 304 216 208 210 197 228 236
224 220 233 237 235 240 248 252 250 238 232 224 222 226 231 229 222 217 207 202 207 205 194 193 188 184 186 194 195 197 173 214 240 262 304 244 225 153 197 231 242 251 266
230 224 228 222 250 246 242 249 254 249 237 232 216 219 230 231 228 222 215 210 212 204 189 189 191 189 194 198 145 209 227 247 265 289 232 220 234 232 248 256 351 457 464
226 228 202 251 238 237 240 244 248 252 252 238 224 215 217 240 233 228 222 214 212 191 189 192 193 197 190 162 216 235 251 280 218 227 227 237 248 256 449 435 437 428 413
227 221 237 231 232 232 242 241 242 248 253 259 236 217 214 237 235 229 222 220 191 187 193 190 133 148 213 220 244 259 224 227 223 236 246 252 367 439 420 412 407 386 369
219 235 230 227 230 233 235 234 237 249 254 258 238 215 221 242 234 226 221 187 188 189 193 134 206 215 226 243 261 232 225 225 238 251 265 442 417 402 395 389 388 366 350
236 222 227 222 223 228 234 237 250 255 254 246 217 213 241 233 229 190 187 196 186 174 177 209 216 228 248 292 225 224 234 242 248 338 389 364 364 374 374 372 370 360 341
220 217 222 226 224 231 239 254 263 245 236 216 212 223 230 219 188 191 184 193 201 206 217 224 243 269 285 227 223 236 250 258 380 366 364 343 328 328 325 367 369 356 340
216 221 227 232 241 248 254 240 233 221 213 215 230 211 189 190 189 184 186 204 211 216 229 207 238 247 228 231 244 254 315 373 356 385 392 416 396 344 331 321 351 309 318
225 231 241 243 254 236 226 219 212 215 228 227 190 191 190 192 136 207 208 213 232 240 278 272 226 236 236 252 258 372 368 389 371 386 398 393 402 394 402 277 317 316 300
229 243 247 229 218 214 213 220 227 221 191 187 187 194 198 206 207 217 231 239 273 263 223 229 235 247 255 276 372 376 370 364 361 389 393 391 386 455 475 437 333 319 302

GFSMA_2pvu_pres_033.txt.gz
Presure
103 97 97 94 84 91 90 90 85 84 87 84 238 117 90 119 124 186 149 208 200 107 110 105 100 97 99 99 109 114 103 108 206 198 196 202 201 197 201 192 189 182 180
95 107 95 108 99 87 95 88 85 106 104 142 151 228 217 227 217 211 111 226 165 111 111 103 113 103 110 104 158 170 112 204 200 199 203 203 201 191 206 195 193 190 193
95 112 93 102 105 88 96 89 88 80 190 196 191 111 205 224 89 126 183 148 121 117 111 114 94 113 193 124 218 211 211 204 204 201 201 210 194 195 205 201 195 193 187
92 109 94 93 100 87 92 96 95 93 98 194 89 200 168 194 183 118 162 125 216 171 111 124 115 111 134 229 162 224 215 213 212 215 216 202 193 207 206 201 197 192 190
184 109 93 96 96 105 98 100 96 86 95 203 200 201 107 199 154 89 92 101 211 171 182 104 109 138 206 207 191 211 213 210 206 204 203 206 210 206 207 198 200 195 192
117 120 102 114 95 98 227 101 99 98 90 100 136 202 202 178 168 87 102 155 196 107 190 123 195 201 192 194 189 232 226 223 221 222 220 214 208 204 208 204 201 200 195
129 98 103 158 103 108 87 103 99 94 96 103 195 130 195 90 80 103 192 193 190 191 149 192 193 119 192 186 186 184 178 173 174 215 208 209 210 213 212 204 202 189 198
238 243 184 136 101 101 102 100 98 134 203 204 125 94 138 168 131 140 123 109 189 185 178 137 177 149 191 189 188 181 173 173 196 174 208 206 206 205 201 200 198 196 194
220 90 228 162 155 164 217 213 214 217 247 222 121 155 121 151 201 109 222 200 192 174 183 185 185 185 186 187 181 173 177 175 173 172 172 195 206 207 206 205 205 206 204
214 221 226 233 231 237 246 212 196 105 217 215 247 237 228 230 247 223 228 125 213 210 205 206 191 191 186 188 187 182 178 175 181 182 176 178 184 201 202 204 204 204 203
202 196 217 98 219 105 225 236 203 194 102 219 101 131 237 240 228 109 122 206 223 224 222 211 215 199 205 195 186 185 177 175 172 177 181 178 187 186 195 208 217 219 194
202 223 225 225 248 242 236 243 259 229 200 210 204 210 195 202 195 155 230 230 138 228 226 205 216 201 201 204 199 181 184 182 189 187 192 177 187 187 196 209 192 197 193
218 223 226 220 241 253 249 232 249 247 245 255 223 253 256 212 201 198 225 226 230 226 223 227 225 222 200 206 209 204 197 189 190 195 198 191 183 197 189 192 197 196 202
213 221 219 221 244 236 231 250 236 227 234 241 270 262 257 248 250 243 235 227 233 238 229 223 226 224 220 204 203 205 207 204 201 196 194 186 194 195 193 198 198 202 153
212 222 227 213 232 232 227 243 231 229 227 243 260 258 262 263 240 243 243 238 239 248 236 224 224 224 220 217 206 204 208 206 202 199 191 195 193 196 200 143 144 196 233
213 230 218 225 224 234 235 245 221 231 176 228 249 247 251 256 257 260 249 209 236 222 227 230 231 229 225 224 220 216 215 216 206 192 199 193 200 178 145 172 226 251 307
223 219 228 228 229 232 228 234 232 224 228 234 255 243 246 248 251 253 257 260 245 233 227 227 234 233 234 235 229 222 220 217 195 198 193 201 145 193 219 229 293 243 209
222 226 234 233 226 220 227 226 226 227 227 250 239 238 244 245 249 253 255 260 265 258 226 222 221 244 249 244 239 236 228 190 191 172 143 207 213 227 255 307 216 228 226
242 244 225 223 225 226 226 229 219 231 244 242 237 234 241 242 242 251 259 263 260 262 247 227 222 238 249 245 237 192 193 198 186 208 215 225 235 294 226 223 234 267 305
233 223 221 229 219 226 227 212 227 240 234 229 229 232 241 244 256 262 258 252 251 248 230 223 249 249 243 202 195 166 198 206 212 225 233 282 268 219 238 268 306 390 379
215 219 215 215 225 229 215 230 233 222 226 235 231 241 257 258 259 247 241 237 228 223 231 244 242 206 168 185 203 210 217 221 225 269 263 215 238 263 281 386 379 373 366
150 217 219 238 238 202 238 239 220 226 236 245 251 266 250 238 233 230 224 217 238 241 231 194 198 200 204 212 218 222 233 298 267 218 261 257 279 377 386 392 387 414 421
218 225 231 215 241 196 211 224 227 236 242 251 247 228 226 222 213 236 235 225 197 197 205 203 209 215 218 228 264 291 263 231 243 260 278 383 378 366 362 362 399 410 403
229 223 218 231 224 210 229 238 242 244 236 223 216 222 231 231 220 197 198 203 200 205 214 216 227 283 293 287 243 269 249 264 266 358 375 376 359 359 352 362 410 405 408
207 206 228 221 228 237 239 232 232 209 212 223 223 220 204 193 199 201 203 210 215 219 250 285 280 272 268 252 251 263 264 374 372 367 362 366 358 350 343 393 400 411 286
227 223 224 227 233 234 210 214 213 221 222 197 195 196 199 204 211 216 224 284 277 272 259 210 256 239 255 263 269 342 387 369 367 356 359 355 348 406 332 382 388 404 447

GFSMA_2pvu_pres_036.txt.gz
Presure
176 174 165 152 107 110 142 107 94 93 94 93 87 88 87 92 108 104 132 121 203 228 113 93 225 129 209 131 109 96 122 115 108 195 191 228 215 206 202 201 203 201 190
175 191 201 157 96 106 98 108 96 89 88 88 88 87 123 104 102 207 90 156 205 206 162 175 205 145 130 183 167 109 121 139 113 124 225 216 214 203 202 201 200 207 201
207 103 103 108 129 108 99 92 206 100 99 105 88 90 97 101 100 135 83 195 117 119 171 192 196 123 119 132 130 102 108 113 134 208 226 223 216 213 210 208 210 206 202
202 100 114 103 97 98 105 99 103 108 89 93 91 100 97 89 97 102 191 139 142 111 116 96 99 104 106 105 93 187 111 127 205 141 184 221 215 215 218 215 204 197 197
216 105 196 102 97 96 94 130 95 97 100 95 92 98 93 94 95 93 101 103 110 85 137 201 188 146 196 191 193 186 190 190 137 191 189 186 230 217 220 213 214 209 207
195 229 219 191 102 93 175 158 154 102 106 101 91 100 102 100 94 103 103 112 193 198 198 112 170 91 189 135 174 191 187 192 122 193 196 186 184 183 214 177 221 220 211
202 210 202 103 185 211 176 172 200 104 103 104 206 101 106 97 102 102 174 230 88 98 204 180 193 130 104 185 186 138 163 189 190 193 192 188 184 180 173 174 177 203 203
216 222 201 220 226 225 205 146 134 105 107 98 134 102 100 103 100 106 223 109 203 126 231 104 231 221 203 197 195 152 190 188 168 184 185 189 182 179 175 176 173 171 172
190 197 208 208 221 158 133 172 232 182 171 229 170 101 217 208 91 167 183 160 236 200 99 155 235 226 218 164 133 206 205 199 198 188 191 184 187 189 174 175 178 181 175
201 201 202 199 199 204 217 192 209 120 111 100 237 231 167 212 190 206 204 121 219 195 241 244 229 231 235 226 236 220 208 203 205 210 196 195 197 188 184 183 174 176 177
200 203 208 215 216 194 175 189 169 182 236 242 250 253 175 265 267 261 219 202 199 206 211 205 234 237 235 228 222 223 225 233 217 205 208 199 205 203 192 180 184 186 186
211 216 195 200 199 212 212 218 213 228 228 241 246 255 251 244 235 242 265 272 271 213 250 252 221 204 200 236 231 230 228 223 223 223 214 208 196 202 206 199 195 188 192
204 227 214 214 207 213 227 201 213 219 236 222 235 238 251 243 235 212 234 241 262 261 262 264 260 254 252 235 229 236 245 244 223 224 222 224 223 207 202 205 206 206 199
198 203 222 216 203 209 202 203 203 216 226 219 234 237 176 245 236 232 236 229 250 251 248 249 255 262 259 247 252 245 244 249 249 234 230 231 228 223 220 212 206 210 210
204 214 226 216 214 208 199 208 205 226 219 229 233 234 233 235 249 237 237 235 259 248 245 244 249 253 256 262 263 251 240 231 234 238 239 243 243 240 239 235 230 221 221
212 222 217 226 216 211 202 213 217 221 219 237 230 229 229 234 240 239 242 251 242 242 245 245 248 249 250 252 255 260 262 256 233 236 235 236 237 255 261 259 255 247 219
219 212 235 228 222 216 210 216 223 263 228 233 226 225 234 240 239 235 247 237 238 237 238 243 246 244 251 254 256 261 264 264 262 229 231 230 234 256 261 258 238 192 194
243 242 239 229 213 209 216 221 215 220 232 222 221 237 237 229 234 247 231 233 241 243 246 254 278 271 264 261 264 261 254 254 253 241 228 231 252 248 199 196 196 206 215
247 231 226 216 223 216 218 214 234 231 218 217 234 236 231 235 227 229 230 241 247 273 277 265 259 249 240 238 237 238 237 233 228 233 248 244 200 199 204 210 215 222 229
237 228 229 229 217 222 231 231 220 217 225 207 234 245 239 228 228 231 249 270 257 253 238 236 232 230 229 229 236 234 241 238 214 200 202 200 206 213 224 236 278 281 273
234 232 229 225 234 230 172 141 220 230 224 239 236 214 214 235 246 253 251 229 223 225 232 234 234 232 229 226 207 196 200 201 202 212 218 273 288 277 264 257 256 270 293
227 230 233 240 205 239 226 215 226 220 237 211 205 205 240 244 249 231 221 207 214 221 226 230 202 194 197 203 203 209 214 216 279 268 263 246 247 223 273 301 391 382 381
229 227 215 193 213 216 213 224 231 210 218 229 240 237 238 227 239 233 227 220 209 193 197 204 210 227 277 280 279 264 254 246 241 235 248 270 321 407 391 375 368 365 368
193 211 205 216 215 220 239 222 212 233 233 239 232 234 249 221 215 202 194 195 202 210 236 272 259 267 258 248 248 242 232 254 266 370 429 412 391 372 364 352 348 354 364
218 215 215 228 240 221 211 223 237 235 231 233 221 212 203 194 200 214 209 210 247 256 264 254 245 195 240 229 244 260 268 439 431 404 382 382 364 353 351 335 336 356 372
216 234 249 215 220 227 237 228 215 216 207 194 193 188 204 205 212 243 247 261 265 239 236 238 237 222 243 266 279 460 437 403 386 374 358 355 345 346 336 333 351 426 426

GFSMA_2pvu_pres_039.txt.gz
Presure
168 171 165 167 174 105 173 163 171 107 110 216 100 96 94 97 87 85 90 96 108 102 98 89 207 204 180 203 185 200 205 129 129 155 100 179 101 129 166 196 226 215 205
161 188 146 191 101 149 164 162 158 171 197 95 91 100 90 90 89 88 92 94 101 99 100 98 197 189 105 164 110 130 100 102 102 107 109 222 202 179 213 194 202 214 211
172 179 189 210 105 180 176 210 114 107 206 215 114 102 99 94 99 102 89 92 89 91 102 101 100 100 176 111 203 105 90 195 190 197 205 117 190 191 204 187 222 212 215
209 181 241 203 188 124 123 226 104 103 108 109 106 103 109 167 104 92 95 99 94 93 95 99 98 103 100 213 204 151 176 123 100 150 193 194 107 187 115 90 185 182 220
210 184 211 224 228 229 225 102 99 100 123 103 94 94 94 96 101 91 99 93 105 103 93 102 102 97 198 194 205 90 192 84 194 194 199 185 192 143 192 194 188 188 185
221 226 226 219 215 221 223 217 141 102 96 100 103 97 104 167 95 106 136 104 104 105 103 103 98 162 229 231 198 127 119 88 199 189 184 192 191 176 188 189 193 192 190
212 215 209 215 227 225 107 97 221 202 170 203 108 104 215 136 226 100 233 99 97 100 107 199 110 139 226 212 204 155 88 224 226 219 211 202 195 192 191 190 189 180 190
226 220 209 202 209 216 217 209 207 221 223 219 195 212 168 196 131 119 103 104 135 117 220 212 174 214 214 238 231 173 210 227 231 227 214 210 212 198 200 198 197 192 190
206 221 216 211 210 214 213 214 218 215 219 216 96 111 146 99 164 214 262 181 100 187 234 243 214 209 188 201 212 225 230 242 242 234 238 230 227 221 207 208 210 206 200
213 213 208 193 215 205 196 204 209 214 180 184 219 216 209 181 102 97 189 227 221 238 242 242 241 245 232 230 204 197 197 208 212 227 239 231 229 231 223 220 214 202 200
215 222 202 196 195 192 194 193 214 216 221 210 206 212 224 225 211 222 230 237 241 250 241 232 245 227 231 233 271 269 268 263 219 217 210 205 235 236 229 228 226 230 216
212 217 221 209 209 193 194 206 210 203 222 216 222 207 228 206 213 203 235 221 234 240 248 243 223 218 218 224 236 261 258 261 262 263 257 247 234 237 242 240 233 232 227
197 209 213 202 219 202 207 204 209 205 206 224 184 219 212 197 204 211 231 223 238 234 235 245 146 233 236 244 242 244 245 252 254 259 266 267 266 257 251 237 235 239 249
215 216 219 212 216 215 202 194 203 200 199 219 223 215 201 198 212 213 230 231 234 238 228 232 240 235 245 244 241 240 247 251 251 255 261 260 265 267 268 261 252 247 250
216 221 216 207 201 205 211 206 211 205 208 211 222 215 209 206 215 221 254 219 238 230 236 237 227 241 240 233 235 243 252 252 252 257 258 256 257 257 263 267 269 262 241
221 217 221 219 209 204 204 202 211 213 214 212 219 218 207 216 214 243 220 242 228 230 232 225 234 230 226 227 236 242 262 250 255 273 265 266 268 269 272 272 275 277 271
241 234 229 228 220 213 208 205 206 208 207 214 225 217 191 214 230 222 239 237 229 235 243 223 243 225 230 230 240 259 251 252 251 249 246 246 249 248 248 249 251 257 258
245 230 244 241 238 225 224 217 214 207 223 227 219 204 184 216 222 239 236 226 238 240 231 223 221 236 241 265 254 246 240 235 231 230 228 229 230 230 229 229 230 230 232
234 251 242 238 224 216 205 230 235 236 229 169 210 217 218 225 237 237 237 229 242 254 213 223 226 248 256 235 232 229 230 221 224 222 225 227 227 226 225 218 214 213 210
288 242 252 227 249 249 241 241 239 228 222 221 221 218 232 240 235 235 229 221 223 211 218 256 261 224 233 223 233 219 222 217 210 204 200 196 195 199 205 205 232 232 213
209 135 284 192 218 242 244 236 230 183 200 221 169 243 231 217 231 232 210 222 219 250 249 230 232 235 231 226 205 195 189 192 210 247 243 254 253 251 251 250 249 251 252
282 288 294 241 230 243 236 227 218 220 234 243 246 248 226 229 224 233 215 225 246 227 223 241 217 199 187 195 256 260 280 247 237 240 245 245 247 248 242 245 247 437 424
344 293 273 235 235 233 220 208 233 244 233 205 230 231 231 229 213 231 239 239 218 216 201 196 237 248 252 252 249 238 236 245 240 247 267 263 356 474 447 421 399 389 386
227 236 191 191 221 231 228 232 232 198 217 231 241 217 226 235 237 235 228 209 199 213 239 248 250 250 237 238 231 245 248 259 260 292 402 463 433 410 384 373 366 360 360
239 238 222 230 226 228 215 211 219 233 219 221 219 228 212 219 213 195 181 224 236 246 248 235 232 232 225 231 249 256 267 321 409 453 397 396 392 378 363 349 343 343 350
228 221 219 208 212 212 225 230 217 216 215 226 223 213 204 189 216 227 240 246 240 229 197 214 228 239 244 253 271 348 464 457 422 403 381 380 359 353 338 333 333 345 367

GFSMA_2pvu_pres_042.txt.gz
Presure
168 169 174 170 169 169 171 177 158 165 163 120 173 123 187 186 149 95 137 95 86 88 92 91 97 95 95 99 99 99 100 100 108 142 151 111 116 148 107 156 158 200 216
171 120 183 181 185 177 164 178 190 174 178 131 200 206 195 245 237 91 112 91 93 83 95 79 93 94 85 95 96 96 94 96 163 192 184 88 196 183 139 104 181 111 159
183 90 173 138 164 173 172 177 187 178 141 190 184 219 237 229 120 111 213 179 104 98 92 95 91 96 91 106 97 89 96 95 95 201 194 90 91 194 197 201 195 186 189
176 183 173 179 190 189 215 217 236 244 225 158 233 230 175 206 110 109 109 106 104 106 118 99 99 90 99 100 95 94 102 99 202 204 216 199 194 85 179 191 193 193 186
176 179 190 199 208 207 198 233 219 223 196 221 215 200 139 160 103 103 101 86 100 102 96 96 100 99 130 96 102 99 146 227 122 220 238 230 89 87 198 201 198 183 194
190 203 90 117 186 194 222 219 221 220 213 223 226 221 216 189 227 101 99 98 98 100 107 213 226 202 170 104 102 102 217 175 210 237 201 178 88 151 226 222 219 200 199
217 213 205 205 204 217 212 210 217 216 218 220 215 216 103 215 204 213 211 192 210 147 207 222 248 102 222 241 244 166 237 218 212 213 213 236 236 230 220 232 229 230 213
198 204 195 207 210 211 224 226 218 222 216 215 220 222 217 210 219 128 219 208 200 180 228 182 132 183 186 206 237 234 230 89 226 216 209 203 196 214 225 229 233 237 233
198 201 198 205 205 207 224 223 211 207 213 208 205 220 196 195 216 227 228 222 213 209 230 211 97 220 191 85 257 247 236 233 227 247 273 250 215 206 204 202 208 226 242
212 199 203 204 205 221 214 209 219 207 212 213 203 210 202 200 217 214 232 227 224 221 225 212 197 207 235 228 244 242 251 230 231 235 233 235 252 263 268 262 217 215 209
205 204 204 200 209 195 197 198 206 206 209 218 216 216 216 206 204 209 210 200 229 227 223 213 206 211 227 247 243 228 234 230 238 229 208 249 250 230 248 254 266 271 264
208 207 202 215 231 203 197 206 213 201 198 209 204 208 211 200 196 206 202 204 208 199 228 215 194 216 222 222 246 235 230 238 237 237 239 242 246 244 245 246 251 262 269
210 217 233 230 220 219 220 208 207 213 215 213 213 211 211 208 206 188 132 214 204 219 220 227 213 215 220 229 244 230 232 236 233 237 237 239 238 239 258 255 266 258 254
239 234 238 239 242 232 235 222 217 212 210 210 206 200 204 206 187 205 204 211 209 215 224 228 219 217 228 243 246 233 232 250 232 239 235 230 242 243 254 261 260 258 259
238 234 229 215 218 220 221 226 221 218 208 207 210 202 201 201 206 204 205 207 212 210 231 231 215 228 231 255 230 237 244 229 238 229 229 232 250 250 257 249 245 241 239
247 239 236 235 233 229 229 220 215 211 210 210 205 209 207 199 201 207 197 198 200 223 233 216 228 230 243 242 232 242 242 247 222 231 240 242 255 240 235 232 233 232 231
273 266 255 246 239 237 237 230 226 220 214 208 206 179 209 206 209 209 220 183 225 230 237 223 228 228 245 232 225 234 239 207 228 239 243 240 227 222 225 222 227 230 234
243 134 259 153 255 249 246 243 233 228 222 220 215 215 214 218 223 204 201 229 158 225 220 223 224 244 246 222 231 216 250 230 231 242 220 220 231 238 214 222 220 234 227
256 261 147 170 214 168 228 231 227 177 225 161 229 209 216 218 207 193 189 228 226 226 229 237 237 264 229 227 211 231 230 243 223 224 230 254 235 220 209 197 194 194 197
268 271 271 195 189 182 231 186 231 240 247 234 227 232 230 239 202 236 229 226 227 232 253 233 254 234 233 230 238 262 219 215 219 219 192 194 222 247 248 251 243 247 254
276 264 262 218 278 269 266 224 272 275 216 202 241 172 210 238 236 235 230 228 202 226 236 242 229 236 233 238 231 203 185 193 260 201 241 237 235 233 249 257 260 269 279
282 291 286 266 149 250 245 275 267 257 215 216 210 236 239 237 231 227 203 210 219 234 225 236 229 230 207 191 249 255 257 227 219 227 236 244 252 251 254 270 284 320 475
306 286 273 266 263 263 193 265 271 275 239 212 229 240 236 232 228 206 221 229 225 233 229 208 204 199 234 255 251 221 225 234 245 243 228 190 259 276 353 473 448 431 416
334 328 334 322 317 303 174 288 240 232 231 235 233 232 235 210 223 228 219 223 226 209 211 221 242 259 239 227 231 238 245 239 248 248 279 413 473 452 425 403 394 391 385
257 262 244 243 251 242 235 233 235 235 238 204 215 215 221 228 221 225 238 219 214 195 245 251 217 226 234 229 242 239 246 251 322 468 441 438 401 383 372 364 359 361 369
248 242 243 240 239 236 204 223 209 214 216 228 225 217 225 230 209 202 198 234 253 233 208 218 178 229 236 240 244 249 333 447 430 405 386 372 357 509 585 556 527 504 497

GFSMA_2pvu_pres_045.txt.gz
Presure
182 146 181 169 181 185 178 183 177 164 173 178 181 183 196 137 199 165 186 158 246 149 94 139 86 85 96 90 90 92 84 93 94 95 95 89 93 96 93 146 193 191 196
180 187 184 184 184 181 125 182 184 179 178 179 178 178 154 241 193 219 243 243 163 215 97 132 89 85 95 91 92 95 89 91 101 96 98 95 86 92 214 214 195 167 205
180 179 177 178 176 171 168 165 173 181 174 177 213 214 234 223 233 225 228 147 220 224 220 127 118 221 111 96 92 218 90 91 96 101 100 99 102 231 224 235 200 215 91
174 169 162 159 159 157 164 187 212 203 218 205 208 219 221 221 218 228 219 221 219 218 224 107 108 105 97 98 106 96 92 102 103 92 124 100 83 213 110 227 232 174 122
157 156 166 177 177 181 198 209 210 204 201 203 209 221 236 224 225 230 228 220 157 123 124 102 102 98 102 109 98 126 182 112 227 180 104 167 92 166 214 222 229 222 235
180 176 174 182 190 199 215 84 90 202 198 180 210 216 238 229 223 221 211 215 219 211 206 214 219 186 220 178 221 226 144 237 125 124 187 276 109 83 224 212 180 231 137
174 181 193 195 207 205 207 200 205 200 203 195 210 214 231 221 222 203 221 206 219 192 194 211 212 241 238 235 222 210 186 225 189 211 257 92 239 240 89 227 221 208 208
197 190 202 211 204 209 202 205 197 207 202 207 206 209 225 211 220 213 218 217 204 213 207 200 218 215 208 234 240 226 221 215 214 231 123 247 257 251 233 240 270 271 226
208 209 212 207 209 200 202 197 197 198 203 200 205 209 225 215 216 221 216 207 218 203 225 215 204 207 213 200 217 234 226 216 209 186 232 245 191 231 241 232 228 226 235
208 206 209 207 204 202 204 204 204 204 200 197 206 234 212 216 193 211 221 203 214 215 180 212 218 210 204 222 206 228 148 234 193 215 225 234 237 234 233 240 240 239 236
205 213 211 200 194 198 196 198 208 203 198 199 215 216 230 219 214 211 211 212 214 214 214 200 206 210 209 204 218 218 224 232 226 219 196 237 242 230 230 232 237 240 241
206 203 204 204 209 206 201 209 196 196 205 219 231 224 221 222 215 214 211 207 212 206 175 167 207 204 207 210 209 218 129 237 231 226 219 244 229 233 229 242 234 233 233
207 206 208 208 209 211 200 198 228 217 249 219 228 231 221 211 216 215 211 206 207 210 208 205 207 203 209 211 206 220 210 237 223 219 232 236 230 231 237 242 242 232 241
212 214 209 213 195 210 212 240 219 219 222 232 216 213 208 213 218 212 211 212 211 204 207 211 211 207 214 213 206 225 234 238 228 235 235 247 228 229 234 237 247 206 223
217 221 221 223 217 218 236 231 223 239 235 231 229 219 214 215 213 213 211 207 205 206 212 205 162 214 213 217 227 219 243 242 233 233 235 250 247 232 237 226 208 208 247
220 112 246 243 229 233 237 235 236 233 234 233 228 232 226 217 215 216 214 213 210 210 211 205 216 216 195 168 226 208 229 236 239 236 264 241 228 235 216 228 234 244 250
262 256 248 214 143 239 244 248 247 244 242 240 239 235 229 221 221 219 216 176 222 222 222 220 220 210 206 221 239 245 240 232 227 223 250 233 237 241 235 243 261 231 236
285 267 264 283 290 252 263 256 258 238 252 254 252 137 237 227 231 228 225 226 224 221 234 159 216 221 226 242 242 242 215 219 221 238 237 245 248 253 231 246 262 205 202
290 285 278 280 241 247 180 240 236 229 230 216 225 228 233 237 229 224 202 219 222 218 223 219 229 242 243 241 230 210 222 231 240 244 237 216 226 239 261 258 243 241 236
267 269 254 261 269 273 262 251 245 239 161 236 234 223 184 163 238 237 234 241 233 206 247 241 248 244 240 225 215 222 234 236 242 225 228 240 255 240 230 235 198 225 251
351 294 285 279 266 265 261 263 257 169 252 246 143 245 226 240 133 159 265 189 248 249 234 243 249 231 223 215 225 238 233 234 216 235 249 262 226 232 241 249 256 261 271
378 363 317 280 270 274 273 268 246 242 244 250 249 274 276 266 268 270 261 226 219 221 240 246 219 219 229 248 237 237 235 245 246 226 220 230 240 250 250 257 267 282 309
413 338 338 327 283 273 266 274 279 277 170 237 260 171 249 255 263 258 245 228 239 220 216 218 226 229 234 228 237 251 252 228 209 227 242 238 247 253 261 284 387 436 428
339 357 317 300 294 295 298 288 279 278 245 253 267 265 263 252 243 241 231 233 214 222 233 236 236 229 236 247 248 221 220 225 237 248 253 248 261 360 417 395 385 442 536
280 284 284 281 276 279 278 281 278 273 270 264 256 247 220 213 216 213 219 226 226 225 230 224 232 246 247 180 220 228 236 242 250 250 263 390 386 378 361 408 391 396 428
210 220 226 228 219 224 213 223 223 212 210 213 214 215 224 233 227 223 226 229 227 216 243 253 227 176 216 230 237 238 246 249 260 383 368 372 363 388 360 353 352 350 334

GFSMA_2pvu_pres_048.txt.gz
Presure
145 150 158 169 160 184 187 186 183 182 182 180 178 175 169 168 168 213 221 224 196 221 226 236 239 127 182 96 86 84 96 92 97 94 101 90 94 97 86 97 186 94 102
130 155 169 164 190 188 184 182 173 179 174 167 165 161 160 164 219 216 211 210 249 240 108 155 230 212 188 126 84 180 94 87 101 97 94 88 97 87 100 182 100 96 208
163 168 167 183 105 174 179 179 183 169 158 152 176 177 211 218 207 208 213 222 231 243 215 231 225 220 217 210 207 106 85 109 107 96 104 101 90 101 101 122 183 83 96
195 192 192 183 177 176 178 171 153 168 178 179 190 213 219 205 208 209 206 201 220 236 226 214 208 207 196 145 191 168 102 106 97 94 106 103 98 190 273 240 185 187 92
191 190 187 174 177 176 177 175 174 171 189 210 217 212 206 210 200 207 202 213 208 231 226 213 216 208 216 209 196 201 216 213 163 169 231 94 221 200 254 191 104 162 231
180 179 174 177 178 176 183 182 189 205 210 188 90 111 157 204 202 200 196 186 210 207 227 216 222 215 208 202 199 205 199 223 209 214 238 243 226 217 179 249 249 254 99
177 182 174 185 173 181 185 203 199 208 209 205 208 203 202 203 193 203 210 199 206 220 217 217 213 219 210 218 212 220 216 201 216 215 207 221 240 235 217 229 223 96 249
185 184 178 181 183 189 212 195 203 213 206 203 209 204 200 197 199 208 201 201 203 223 232 227 217 216 207 216 205 226 202 219 216 210 223 215 219 233 239 217 195 231 243
181 184 186 189 203 208 206 212 208 204 205 206 201 196 201 199 202 203 199 191 217 226 221 223 223 211 213 214 217 216 217 205 212 215 212 219 224 221 236 232 215 220 242
212 213 212 205 209 209 203 199 202 201 201 197 202 205 203 199 206 199 202 204 224 216 228 221 223 223 216 213 217 218 207 214 214 210 213 204 216 215 232 230 212 217 122
217 211 205 212 211 203 203 204 195 199 206 207 203 202 201 205 199 208 209 225 215 221 218 211 208 216 216 216 217 213 216 218 217 221 218 207 217 223 220 235 222 212 227
208 208 207 211 208 206 203 201 196 202 200 205 205 206 203 199 211 206 214 220 221 225 215 212 208 213 214 126 196 126 216 214 216 216 217 215 213 222 228 240 220 222 223
212 213 209 204 198 190 209 204 205 203 204 201 197 199 202 211 207 216 222 225 223 220 220 213 213 218 216 214 217 208 209 215 206 215 218 219 211 238 230 239 227 217 232
210 206 208 212 212 209 207 204 200 209 212 207 203 206 209 227 224 216 219 227 219 224 218 213 215 214 178 166 218 215 213 155 216 223 224 230 234 228 247 243 234 220 244
221 221 222 171 221 214 218 216 215 211 211 211 213 215 225 221 227 224 222 228 221 225 222 222 221 218 213 222 218 215 185 223 219 227 223 227 165 240 246 237 223 221 211
252 252 188 165 181 182 196 235 236 132 236 235 232 230 228 224 221 227 233 228 230 227 221 221 215 222 217 217 225 208 225 227 214 164 188 230 245 256 232 217 225 232 243
277 269 265 260 255 251 250 246 242 241 239 237 234 230 227 228 234 236 143 232 233 230 229 227 229 224 204 200 180 224 225 223 221 232 229 245 255 230 218 231 234 248 234
295 297 303 306 261 248 243 240 238 236 237 237 235 234 235 239 231 233 174 135 241 245 247 245 244 242 238 234 239 230 169 209 237 247 255 256 222 236 232 244 238 242 204
423 393 312 288 287 276 272 277 259 258 254 240 241 239 240 246 229 225 136 227 197 225 219 231 132 231 226 229 222 229 241 233 234 253 251 226 228 232 243 238 221 223 247
384 389 384 377 323 278 269 263 255 262 267 262 254 255 252 243 238 238 178 239 242 227 205 229 232 239 246 261 261 267 253 233 246 229 232 220 238 228 227 246 256 238 216
373 353 361 405 412 341 266 258 255 251 247 240 240 249 250 250 247 246 242 236 241 240 232 241 249 270 276 266 260 260 237 225 225 230 234 239 238 248 256 234 238 240 233
342 345 333 354 342 363 347 263 260 245 243 239 256 246 250 246 247 249 247 249 246 191 256 253 260 267 265 263 254 244 234 226 236 238 229 244 252 224 233 234 248 245 255
314 315 354 321 338 337 333 328 299 288 262 258 254 258 260 257 253 257 260 255 270 248 251 266 258 246 235 231 233 229 237 236 237 245 242 197 236 237 242 247 259 267 279
261 318 334 321 318 325 318 306 300 287 279 272 264 254 260 251 262 257 251 264 270 275 254 234 219 223 231 237 227 223 231 249 247 232 237 239 238 247 256 269 312 394 388
245 244 241 242 267 291 290 292 298 304 307 306 307 303 306 248 238 220 217 224 217 223 228 235 222 217 220 229 241 227 238 236 244 235 234 247 261 263 278 383 382 389 389
239 246 245 211 238 230 233 232 234 239 236 233 237 227 231 217 230 221 230 215 217 215 217 227 226 231 237 240 239 238 237 258 236 250 261 266 350 359 325 325 373 365 362

GFSMA_2pvu_pres_054.txt.gz
Presure
143 140 152 147 152 143 145 152 153 152 155 115 134 173 183 176 172 177 183 173 171 179 179 215 205 210 205 217 204 210 210 209 225 242 221 217 88 93 90 94 97 96 96
150 144 145 144 151 153 154 158 157 160 161 174 179 176 174 175 187 210 173 196 192 214 216 210 214 207 208 210 208 206 219 214 200 239 238 224 95 124 106 156 91 98 99
151 151 154 153 158 160 163 163 168 175 181 179 170 174 177 183 192 212 208 215 210 196 213 211 204 215 209 206 201 214 212 204 212 214 235 236 223 223 219 210 100 93 99
153 152 160 160 164 157 169 174 179 178 171 195 175 180 181 191 215 217 194 207 206 210 206 212 206 212 210 211 209 210 211 206 210 206 234 232 230 215 216 213 215 216 224
130 164 162 165 168 176 173 183 175 174 193 181 188 190 181 209 224 209 139 207 207 208 205 203 203 201 201 204 205 202 206 209 208 215 229 231 230 230 224 213 215 215 206
162 169 172 178 177 184 178 186 176 180 176 178 187 179 212 226 222 209 210 209 209 201 197 206 205 192 199 202 209 204 202 204 206 211 232 233 233 222 228 220 212 216 216
170 177 174 186 190 173 168 181 176 198 197 235 222 234 212 221 223 219 216 199 200 193 197 202 200 200 197 202 201 205 203 209 201 214 229 236 234 227 213 224 223 217 213
176 185 179 179 183 182 189 195 200 219 239 220 221 219 210 221 219 211 212 206 202 202 205 200 197 194 203 203 197 199 205 206 200 221 223 230 229 230 232 226 224 220 218
189 185 183 183 180 193 196 194 150 198 216 201 212 208 214 199 209 214 213 206 197 198 201 196 188 202 199 201 204 202 194 205 205 230 227 224 225 231 221 231 219 221 218
182 189 161 154 150 164 208 183 194 194 193 191 203 206 211 213 205 199 198 203 204 200 199 198 196 197 200 198 197 204 204 201 225 225 218 220 218 228 217 222 229 221 229
156 189 156 204 178 192 194 182 183 195 209 196 203 220 221 225 221 212 209 209 206 201 199 201 204 204 197 194 195 200 202 222 216 218 214 213 219 223 225 223 229 224 222
179 183 175 189 213 173 215 217 217 237 233 229 225 223 218 214 211 211 211 210 208 208 207 203 203 197 194 195 195 203 250 218 225 217 216 211 218 225 229 214 222 228 215
200 187 201 225 223 204 224 227 234 240 243 245 241 232 228 227 223 220 218 212 209 205 205 203 200 195 191 215 197 225 216 219 217 215 221 218 215 221 223 228 224 229 201
185 200 229 197 225 232 237 242 259 267 290 286 287 126 114 265 104 245 232 224 218 189 200 210 202 205 212 209 214 203 222 215 218 212 218 214 223 219 222 225 227 228 229
218 246 198 231 227 245 264 289 299 290 294 304 286 276 265 260 265 247 258 245 247 237 233 233 221 203 255 225 213 217 218 224 174 213 198 216 225 219 226 244 217 255 232
240 215 229 236 264 272 195 284 280 262 254 280 271 286 272 276 262 252 247 249 248 240 233 232 229 213 209 209 221 218 223 175 224 194 218 223 228 215 250 228 255 217 235
220 235 238 268 276 272 275 251 251 399 365 349 345 285 286 267 271 259 257 247 236 241 242 229 220 223 227 225 225 223 213 212 186 217 225 230 247 254 217 238 238 241 231
228 277 274 268 258 254 252 236 351 379 368 348 327 336 328 273 310 271 247 261 246 233 219 220 221 219 214 218 209 212 212 213 152 229 216 251 252 243 237 134 235 244 253
278 267 264 257 245 280 369 348 339 355 368 349 336 331 321 321 310 254 240 252 256 248 238 230 228 225 223 221 223 227 229 124 255 252 245 235 233 234 236 242 247 254 258
262 254 252 241 244 255 260 330 320 328 424 371 352 342 334 334 315 297 277 262 247 250 254 251 251 254 255 261 271 263 250 241 236 234 244 251 249 248 246 254 262 255 276
259 253 263 265 241 235 251 250 323 310 308 316 345 347 338 325 319 303 281 257 244 233 241 232 237 246 247 243 244 245 244 253 261 263 265 275 271 275 272 276 279 273 248
254 237 249 240 244 265 273 263 248 301 306 298 294 302 337 333 306 310 275 257 248 241 234 240 231 243 244 243 250 255 252 261 252 274 260 275 268 262 254 236 238 245 245
257 253 242 235 242 243 237 249 264 258 237 277 293 286 278 290 299 292 271 265 263 259 239 233 242 247 258 268 278 272 264 256 245 230 231 240 240 242 251 259 264 257 253
252 251 222 234 212 209 220 224 244 244 252 254 237 252 260 270 279 280 274 267 257 257 276 268 259 255 237 222 225 229 231 230 236 241 243 245 243 241 246 250 252 247 242
233 218 237 224 223 229 225 211 241 246 243 241 239 240 239 240 234 233 231 233 220 225 225 225 228 225 231 232 243 237 240 239 242 244 248 246 243 240 194 245 266 274 298
226 240 232 215 219 216 213 219 229 223 231 226 231 233 232 234 236 236 236 234 239 234 234 233 232 237 241 236 231 244 240 240 243 240 209 182 274 278 305 317 368 369 368

GFSMA_2pvu_pres_057.txt.gz
Presure
143 141 142 139 142 143 145 132 121 151 152 159 156 161 168 176 187 187 187 185 150 182 193 234 224 204 211 216 207 211 205 214 211 222 222 221 220 209 236 103 95 98 93
144 144 145 146 143 153 125 152 152 158 162 152 161 112 173 181 177 177 181 177 204 226 193 235 219 200 206 212 204 207 202 204 195 206 207 213 217 212 215 235 191 228 102
138 144 147 143 154 153 156 161 159 167 165 161 173 172 187 178 174 174 198 219 236 225 232 232 220 204 205 209 206 204 203 211 196 195 213 208 208 213 211 237 234 231 225
155 151 152 152 152 153 161 163 166 164 157 170 181 187 174 177 188 195 248 226 223 235 175 213 224 220 208 199 199 190 204 203 201 201 207 205 210 209 201 228 237 237 228
151 154 158 159 155 161 167 160 170 168 172 183 185 177 191 191 192 234 197 192 195 201 214 197 222 213 212 205 200 202 207 202 196 204 205 204 208 205 205 208 240 241 224
159 156 162 162 165 165 169 170 172 177 188 189 186 196 192 197 202 154 186 191 189 186 193 226 206 208 213 205 201 196 202 201 195 205 199 205 206 207 205 213 231 234 233
161 161 158 163 172 174 171 183 177 190 189 152 192 185 151 168 163 190 174 188 187 210 190 209 205 209 197 208 203 201 197 197 196 197 198 206 199 209 201 234 230 227 238
159 163 165 157 170 181 182 171 185 187 192 184 190 206 181 203 230 184 196 199 196 224 221 216 222 212 209 213 206 198 198 199 201 207 207 206 206 205 206 216 235 228 226
153 167 173 180 181 162 152 170 192 170 190 151 203 188 214 201 176 233 198 209 226 225 224 222 216 209 210 208 208 204 203 202 201 203 205 205 205 205 227 238 235 219 222
181 183 182 151 144 165 184 193 164 154 159 177 191 197 244 238 220 220 228 232 228 230 226 225 222 214 213 207 207 207 205 203 201 198 203 206 203 211 203 223 234 224 223
143 145 180 195 191 166 189 181 178 200 203 210 181 245 248 235 207 246 252 245 248 237 233 226 221 218 213 210 205 206 202 201 197 201 202 199 203 195 220 222 228 222 219
177 176 190 194 191 161 190 193 198 201 213 206 236 242 223 251 255 277 273 269 271 258 257 248 241 230 220 213 208 205 199 200 196 191 199 205 212 225 223 221 221 225 218
152 182 162 186 188 191 201 208 190 236 235 245 251 248 295 218 274 272 209 103 180 265 258 252 250 243 239 233 222 186 204 198 194 198 168 211 217 219 204 216 203 226 224
187 184 189 178 195 198 208 192 236 249 245 243 293 271 292 271 104 245 239 234 223 240 231 256 258 250 246 239 229 220 214 212 215 210 216 178 197 201 204 216 218 231 217
187 169 183 199 195 208 249 241 121 238 259 288 288 280 265 258 326 274 264 228 254 244 247 252 249 249 243 245 238 227 217 219 208 213 214 215 208 213 210 215 220 228 218
195 188 189 199 255 248 232 227 242 284 265 274 269 253 283 365 403 393 296 292 278 272 259 248 226 236 235 235 225 229 218 221 220 226 218 216 215 214 211 214 213 215 221
188 203 216 242 246 229 237 257 258 273 267 288 260 268 359 370 374 370 313 290 280 255 252 254 246 241 229 237 231 227 228 230 224 203 213 216 216 215 214 217 180 217 219
224 252 241 240 238 242 270 263 266 264 251 252 285 262 383 367 354 333 338 306 286 276 257 249 250 242 253 253 240 237 231 218 229 231 203 220 203 219 216 127 218 219 217
235 243 236 243 251 265 265 270 253 247 242 264 278 328 399 377 347 336 323 320 308 283 273 261 246 245 235 238 230 237 237 239 221 223 219 219 222 219 222 221 230 234 252
242 242 249 287 255 255 266 253 252 240 270 223 266 242 309 364 363 363 329 330 318 288 269 279 263 248 232 238 237 238 229 230 231 232 231 235 243 252 252 263 243 252 244
252 292 277 270 252 262 260 253 240 226 223 227 273 267 270 302 312 312 319 321 342 320 305 281 264 258 248 246 240 230 220 227 234 231 244 250 243 256 245 245 252 252 255
275 272 266 252 247 263 252 236 225 225 206 226 247 244 258 258 265 266 292 291 293 300 298 287 266 261 248 242 239 238 237 240 244 234 231 246 246 266 289 286 283 238 239
272 256 251 248 246 245 230 219 231 216 225 217 237 228 233 240 251 250 253 245 262 273 273 267 263 259 255 256 255 255 243 252 267 276 260 265 235 239 242 239 236 238 240
260 243 242 254 237 239 233 225 235 215 226 220 221 221 219 233 233 230 238 237 238 236 232 231 233 231 240 229 229 229 229 231 231 232 231 235 236 243 244 247 201 239 250
239 267 243 248 226 242 233 232 208 224 220 230 218 224 219 213 225 219 224 236 233 229 228 230 231 233 234 235 234 237 236 237 239 239 242 253 250 250 252 259 286 200 290
240 242 262 252 247 223 229 228 242 232 227 226 218 218 223 219 218 218 224 224 224 227 225 223 232 227 224 241 234 237 240 242 274 293 338 332 327 315 191 283 284 295 312

GFSMA_2pvu_pres_060.txt.gz
Presure
140 138 136 149 137 138 119 137 143 144 154 154 131 165 153 159 161 165 174 187 189 193 190 191 196 222 183 201 211 207 213 215 211 211 203 198 202 204 208 209 210 223 216
136 88 144 141 138 145 153 153 150 155 146 162 162 154 161 168 166 178 187 181 199 188 197 200 210 168 176 234 183 185 191 219 210 209 207 203 205 210 204 205 206 212 208
143 145 144 137 155 153 151 154 154 153 161 152 162 157 164 175 175 180 171 194 192 189 196 154 214 169 200 173 191 190 196 211 212 208 205 206 202 205 207 208 207 210 212
143 145 140 151 155 153 159 147 157 158 159 162 163 170 169 180 167 160 188 156 196 189 164 181 208 240 216 204 199 202 229 221 197 210 199 200 203 202 193 200 202 211 209
143 146 153 153 149 154 154 162 155 153 167 167 170 179 178 178 160 175 193 194 152 199 198 176 230 175 228 211 197 224 224 216 210 206 207 202 199 198 200 203 202 217 210
152 152 145 145 154 160 148 155 163 164 158 172 181 186 173 173 177 189 189 163 196 206 220 205 229 221 224 207 218 220 222 222 217 210 205 208 206 202 203 201 199 207 208
145 145 154 160 161 161 157 168 161 141 173 182 180 145 164 192 166 160 182 185 196 255 232 220 238 225 217 226 227 224 217 213 211 213 203 198 204 201 200 202 203 211 208
159 160 160 159 155 169 157 140 172 180 163 165 156 194 179 170 182 187 208 224 249 235 235 235 224 226 231 232 234 232 228 223 216 214 207 204 202 202 202 203 206 206 215
156 157 150 159 162 171 168 178 179 164 151 185 175 187 185 191 184 194 229 240 238 245 232 221 242 248 250 241 235 229 229 226 218 210 210 207 205 200 202 203 208 206 202
157 167 141 167 171 174 175 159 146 179 179 168 189 192 185 199 207 245 246 247 245 243 281 276 244 239 234 227 249 235 228 221 220 216 213 206 203 204 205 203 205 201 224
174 179 180 180 178 173 146 168 185 159 188 187 187 190 204 202 244 254 238 262 281 276 257 279 262 250 242 247 246 251 241 225 223 221 216 211 218 210 208 203 206 209 225
144 179 182 189 168 168 175 177 183 188 188 189 192 206 210 247 257 248 297 263 267 271 285 247 234 231 249 259 226 223 256 247 216 218 211 155 199 196 210 213 212 208 212
183 164 167 171 149 181 184 192 187 194 201 203 208 236 252 254 279 272 291 280 274 253 235 237 239 268 238 230 215 213 209 209 233 214 210 208 224 215 216 214 194 201 214
187 181 182 156 186 191 193 197 192 197 204 256 251 246 255 291 272 272 275 263 250 289 347 245 258 234 258 223 219 217 209 224 211 235 218 220 200 200 211 203 207 207 210
179 183 187 189 194 192 192 191 201 227 236 242 243 260 279 280 268 265 258 339 379 379 350 290 274 248 239 228 244 238 223 228 227 244 237 236 211 209 207 215 215 219 217
188 190 191 185 192 185 203 212 235 226 248 246 262 260 278 266 261 246 239 315 416 415 367 281 267 256 244 245 238 240 229 236 239 235 227 237 234 228 225 229 215 227 210
186 190 197 201 201 196 203 213 249 246 243 286 266 268 265 255 242 231 299 397 378 369 343 288 277 255 257 250 242 244 242 241 237 236 215 224 223 211 217 215 219 216 221
191 192 197 219 195 212 221 249 242 258 290 266 255 267 254 241 230 218 256 384 368 356 334 284 265 264 259 257 268 260 245 242 237 234 232 220 226 228 220 214 213 221 213
204 221 216 216 209 245 250 250 266 277 266 254 267 256 240 232 225 244 246 281 394 362 339 294 275 269 262 261 253 261 257 249 252 234 236 237 238 230 230 226 227 222 221
224 215 232 253 243 248 253 266 279 269 250 249 256 241 229 232 237 234 231 250 272 329 378 326 289 274 264 252 249 238 250 242 261 247 238 226 238 230 236 238 240 237 236
247 254 239 251 244 252 282 285 263 248 243 251 242 236 227 233 217 235 244 224 242 249 258 360 351 315 279 262 251 250 242 249 239 240 238 221 229 244 241 239 232 234 230
240 251 241 239 254 291 273 257 252 243 253 242 243 234 245 235 238 232 218 238 230 236 250 245 248 254 312 303 292 266 270 263 255 247 243 250 254 248 243 242 243 244 243
248 243 247 257 285 256 262 258 237 241 255 231 237 227 245 239 233 228 229 231 225 229 228 228 230 236 238 237 236 232 231 234 236 245 244 254 231 234 236 237 239 239 241
242 265 286 276 260 246 251 230 244 255 240 245 230 227 242 243 233 226 224 224 223 219 226 224 219 220 225 220 222 221 226 229 228 225 229 234 238 228 227 227 231 232 251
279 277 263 265 255 261 236 241 258 263 213 232 238 236 227 249 243 238 227 215 226 213 216 213 225 218 216 222 219 221 223 236 239 237 221 244 250 253 254 258 268 222 168
272 268 254 254 300 295 242 244 260 216 230 234 237 237 246 239 247 245 245 235 236 205 234 244 210 237 224 221 227 251 251 241 247 242 247 288 371 340 311 297 292 299 405

GFSMA_2pvu_pres_063.txt.gz
Presure
124 128 131 136 117 140 142 100 147 145 156 141 150 152 160 149 153 163 153 169 175 180 175 186 191 187 174 160 182 239 230 163 228 221 232 194 225 212 203 210 206 208 205
115 128 145 146 145 142 149 147 142 154 139 156 152 156 155 157 154 157 169 181 179 172 164 160 181 179 164 182 232 237 196 215 228 173 226 206 226 218 207 203 199 205 205
151 148 148 145 143 143 148 153 152 140 153 155 154 157 146 155 156 168 179 179 169 160 142 182 160 181 180 230 245 237 220 222 230 217 206 215 219 216 214 204 204 202 203
146 143 142 141 140 149 149 153 140 150 156 154 159 150 162 155 164 174 182 154 182 160 165 180 172 186 198 237 243 231 221 228 224 212 210 216 215 217 209 211 203 201 199
140 147 151 129 151 147 148 154 156 158 157 158 143 163 165 168 156 177 161 158 167 172 170 179 192 204 229 245 237 227 235 210 209 214 217 221 214 210 207 210 197 202 201
148 150 150 157 152 147 162 154 156 151 155 152 170 171 176 179 150 173 163 170 175 190 191 192 213 240 249 236 236 228 222 223 225 233 229 224 229 217 211 205 205 207 200
155 156 148 149 149 159 146 154 153 147 146 169 170 176 174 180 153 171 171 163 188 194 204 221 250 239 240 233 233 242 242 238 234 238 228 222 217 218 224 210 207 203 200
157 154 147 158 144 147 154 159 138 166 164 171 173 176 170 173 166 177 187 192 196 209 259 249 250 250 261 273 269 263 254 251 250 234 237 228 218 209 208 211 212 204 202
150 154 150 141 156 148 142 151 166 171 170 173 176 156 168 176 168 187 195 199 210 254 246 249 284 290 277 261 259 242 235 247 244 248 240 229 226 219 210 211 207 207 207
144 153 157 159 152 157 152 167 172 169 181 176 172 174 177 188 193 198 199 214 256 244 281 302 272 289 259 256 263 271 254 228 225 230 249 238 235 222 215 209 213 209 204
157 157 156 161 164 166 171 168 169 178 171 181 184 183 181 193 206 213 210 250 259 277 269 292 266 270 255 243 242 237 253 221 222 235 244 247 243 228 221 216 216 215 217
164 170 167 167 173 163 164 175 167 163 181 180 187 188 189 203 207 210 211 264 280 278 281 276 258 246 233 269 222 264 260 233 228 252 220 228 217 239 231 228 222 217 215
169 173 176 156 168 177 163 173 179 182 182 194 190 187 198 208 202 241 260 296 278 284 229 254 244 236 257 347 337 310 249 258 235 232 223 217 204 201 206 222 218 217 222
170 162 173 169 174 175 182 180 182 177 190 189 194 196 197 199 259 251 289 273 282 275 257 241 237 253 390 360 349 298 300 268 229 252 222 254 228 221 203 225 212 221 213
164 146 160 174 172 176 180 179 184 190 190 192 195 227 218 259 251 273 276 272 272 266 245 240 237 253 410 359 323 290 270 243 236 244 246 232 222 212 209 219 196 206 211
179 176 177 178 183 174 156 190 190 187 184 201 236 229 257 253 261 277 264 265 262 249 242 228 244 355 362 372 306 287 267 247 253 236 237 231 228 247 227 234 213 196 224
179 186 169 165 192 193 192 185 193 201 226 237 248 252 249 261 278 264 254 259 248 239 230 234 242 381 336 323 291 280 263 242 237 249 254 228 246 223 232 228 213 218 229
187 190 191 191 190 191 193 190 224 237 242 258 250 246 262 283 264 252 254 252 243 244 229 243 241 256 360 292 282 279 253 253 253 264 238 228 229 241 230 241 231 233 237
179 189 184 164 230 223 236 238 252 253 253 247 239 251 279 269 256 248 251 251 239 241 227 239 235 241 244 297 283 269 268 253 253 250 245 252 245 243 240 231 239 234 240
174 154 204 226 231 238 256 244 254 242 249 245 249 274 263 254 242 246 242 245 231 243 244 233 231 223 232 234 292 274 269 269 266 256 262 253 258 252 244 247 238 242 240
236 228 225 228 227 232 257 244 244 245 243 283 267 253 268 242 242 254 244 238 229 248 245 239 234 231 217 222 225 244 267 253 260 262 268 249 265 253 254 253 251 240 238
227 226 218 266 258 254 252 239 241 249 269 263 254 246 241 249 243 246 238 235 239 248 254 248 242 233 252 218 206 218 215 223 220 241 260 234 241 235 252 249 249 246 253
276 265 253 251 246 243 237 246 282 272 252 271 246 249 236 247 263 216 238 233 238 245 242 239 241 245 245 226 249 244 210 230 215 218 217 215 214 217 224 229 234 232 233
249 239 241 240 238 239 249 280 266 261 261 243 274 273 243 242 221 231 234 233 240 226 205 229 251 251 200 254 247 243 205 236 220 218 226 228 175 243 248 247 241 241 240
237 233 235 241 250 279 267 275 260 263 254 291 290 244 208 218 234 233 238 243 236 205 203 256 253 259 258 250 242 238 247 247 246 242 241 241 249 252 261 267 260 253 249
236 239 239 262 268 264 262 255 259 282 290 280 239 214 223 232 215 232 236 232 238 249 258 261 227 250 249 251 252 254 253 261 267 266 270 261 263 286 295 384 324 314 305

GFSMA_2pvu_pres_066.txt.gz
Presure
141 143 137 126 89 106 123 143 146 140 141 148 150 103 155 155 150 147 149 159 169 166 174 179 180 156 157 174 189 190 213 250 251 238 237 221 223 217 219 212 207 218 215
134 142 142 129 107 113 138 147 141 149 152 147 159 153 148 149 145 154 159 167 165 175 176 179 166 177 167 190 195 210 227 264 239 238 233 226 221 220 220 207 212 223 213
132 124 133 147 140 146 142 141 150 153 147 142 152 146 151 147 150 155 165 165 171 171 182 183 174 172 188 196 211 206 261 240 237 228 225 218 216 227 210 205 208 214 212
153 150 148 149 144 141 148 149 146 145 149 137 153 153 149 151 152 156 170 173 170 182 181 181 169 170 191 211 209 267 250 242 227 234 237 227 223 217 221 215 231 216 212
142 142 141 147 154 153 146 145 154 150 144 157 144 153 152 151 146 168 173 169 178 175 181 186 189 192 208 194 243 251 251 243 248 249 242 238 238 231 227 230 219 214 215
148 156 158 149 140 140 150 161 148 150 152 148 159 159 156 164 170 172 168 180 174 176 184 199 186 197 224 232 256 254 273 285 276 268 262 253 241 232 227 221 229 215 211
168 143 139 136 150 161 156 143 151 143 158 160 149 159 166 169 173 163 180 172 178 184 191 181 195 208 228 262 257 299 265 270 268 258 254 272 236 240 231 222 234 219 205
143 139 149 157 143 143 140 149 156 155 159 158 162 170 156 171 159 179 171 172 183 188 184 194 207 235 266 276 282 285 275 272 267 254 248 267 248 247 246 233 230 226 217
152 154 152 156 149 134 152 156 152 158 162 169 169 173 176 157 176 153 176 171 185 187 193 209 243 256 275 273 287 274 263 252 240 225 221 231 243 263 249 248 235 222 217
141 146 149 153 158 159 131 158 161 168 168 163 174 179 168 176 172 181 165 178 193 190 202 241 256 274 284 273 275 259 210 238 190 231 285 203 214 233 228 253 238 237 228
159 160 159 156 127 160 160 161 158 167 172 177 163 168 176 179 181 187 189 199 195 199 242 252 262 292 221 273 262 248 242 230 220 225 233 240 258 242 207 218 217 245 228
157 147 158 160 161 162 162 172 175 174 164 161 161 178 182 183 188 195 198 196 198 243 186 254 291 282 277 266 251 243 233 254 228 299 293 248 253 240 233 221 236 233 243
160 162 165 158 163 168 170 167 170 155 164 178 182 179 146 191 194 194 202 208 251 261 251 280 281 268 268 255 251 239 250 256 398 338 351 277 251 257 233 229 239 228 227
167 164 165 169 175 171 155 154 162 174 180 182 181 146 191 189 190 202 253 257 261 258 247 276 265 262 262 254 244 259 253 377 400 354 311 292 255 237 240 210 217 219 227
174 170 173 178 172 173 176 177 179 180 184 183 192 193 181 194 199 240 248 261 251 252 281 267 256 256 256 254 249 249 249 408 373 341 299 270 262 248 237 256 232 219 215
168 175 174 172 168 170 156 180 183 182 165 186 189 167 193 200 261 237 256 253 253 281 269 263 252 252 244 252 262 242 238 363 332 315 297 255 259 231 241 233 229 238 217
177 177 177 176 179 179 183 186 183 183 189 188 165 218 226 236 237 255 247 253 271 267 261 253 255 244 237 245 256 257 240 252 305 299 275 267 253 250 244 254 240 241 232
184 179 184 186 189 189 183 189 187 192 198 154 234 239 238 236 253 254 248 262 262 255 255 245 254 246 237 220 267 265 251 227 245 284 271 260 239 233 242 243 264 240 249
192 194 184 189 194 200 191 194 206 244 193 237 234 270 224 253 250 245 272 258 259 258 239 257 250 237 237 251 242 258 243 249 218 216 262 241 250 229 230 239 240 222 238
191 199 193 215 193 205 235 231 246 233 240 255 254 252 250 249 241 275 264 268 242 243 244 263 235 236 237 250 234 244 266 234 232 220 261 229 254 260 250 241 247 242 240
240 227 226 261 253 260 248 248 252 260 272 257 250 245 243 249 272 265 256 248 254 244 266 225 235 232 239 243 204 233 209 262 241 254 227 284 214 236 264 228 272 229 243
258 225 223 256 250 256 266 260 262 257 252 243 246 247 278 266 266 253 254 244 262 247 219 233 235 239 245 240 245 261 259 256 246 248 208 235 236 241 236 227 226 226 222
265 213 261 248 260 253 267 258 246 245 239 258 260 270 262 269 253 307 263 273 244 208 225 230 227 238 240 250 263 262 252 244 241 240 243 249 247 246 241 238 235 233 233
263 261 251 258 265 256 244 243 242 237 254 279 259 266 255 254 282 286 279 239 216 228 228 215 233 247 260 265 262 244 237 232 237 237 243 249 253 259 255 253 253 252 250
266 266 250 258 237 240 238 241 257 263 257 256 251 250 276 270 265 252 244 226 235 230 219 240 253 265 267 244 238 236 229 226 233 234 243 254 269 271 270 267 266 266 271
256 236 235 237 239 226 253 244 263 259 261 253 244 247 263 264 277 248 244 240 238 251 258 263 269 243 234 227 223 227 235 235 236 244 252 271 274 276 275 277 281 285 289

GFSMA_2pvu_pres_069.txt.gz
Presure
152 143 145 146 136 143 140 151 148 136 123 129 140 151 153 153 137 154 152 147 156 154 157 169 170 168 177 175 180 186 180 187 211 236 243 264 243 238 230 226 220 224 226
152 149 143 143 137 133 129 146 121 130 145 143 156 146 156 149 156 150 150 155 153 154 169 157 175 161 179 167 185 180 185 200 235 234 252 257 243 240 227 229 223 222 214
124 148 153 139 150 124 149 148 145 144 155 152 141 162 142 145 146 147 154 154 152 168 156 177 161 178 174 183 181 197 192 215 241 250 253 247 250 255 251 241 230 219 214
138 147 125 143 150 143 142 143 155 156 142 136 161 144 152 142 149 152 153 157 170 169 177 165 176 172 181 191 202 202 202 247 248 263 268 282 290 281 261 248 237 229 228
149 141 137 140 155 153 147 153 143 140 141 160 155 147 145 147 154 153 156 163 169 177 174 173 162 185 196 201 192 202 240 252 262 294 283 267 267 265 268 257 243 232 229
143 147 145 157 151 156 144 142 154 148 150 155 155 145 146 158 158 158 160 171 169 174 172 163 189 196 189 196 210 244 252 267 292 284 269 264 259 254 263 252 260 247 230
149 150 154 152 154 142 156 138 148 149 150 145 143 160 159 148 163 157 173 175 170 164 178 183 200 194 187 199 229 256 266 260 289 267 269 261 240 229 227 227 262 262 242
153 149 150 141 139 143 150 159 155 153 149 153 160 157 145 167 157 171 171 170 164 174 184 190 188 185 201 197 252 265 263 297 274 274 258 245 241 217 223 211 229 240 266
142 149 155 157 160 166 167 152 152 156 161 161 160 158 165 153 166 168 168 167 172 186 188 181 182 193 203 222 242 265 277 279 267 262 244 242 232 230 219 209 241 240 201
145 145 152 153 156 151 144 153 161 160 160 157 166 162 167 169 172 170 166 175 181 177 171 189 189 203 233 257 256 264 291 270 265 259 254 238 237 230 233 220 221 237 231
150 159 157 143 145 156 159 126 160 159 168 158 169 167 170 180 178 177 177 183 185 175 190 187 201 239 237 253 264 292 275 264 131 253 261 251 251 244 229 236 225 236 249
126 123 116 133 160 140 166 170 163 159 169 168 169 177 170 179 177 178 180 189 185 190 192 196 232 261 262 258 273 282 265 263 257 253 268 258 245 297 367 271 245 246 258
170 157 170 170 170 168 167 166 170 172 171 176 177 163 177 181 180 183 192 187 189 159 185 226 261 254 258 253 283 271 256 261 242 267 289 249 288 377 333 321 270 258 258
178 177 177 172 175 172 169 174 172 171 167 170 129 181 180 179 190 188 199 194 200 196 224 256 241 259 251 284 269 252 265 255 253 279 290 264 389 384 344 289 266 257 239
169 169 170 161 164 174 175 177 175 170 173 183 181 182 187 191 194 195 195 197 214 235 265 259 250 251 277 269 263 248 264 244 261 259 283 254 361 320 304 274 257 246 251
169 170 177 176 177 179 180 179 181 183 180 184 184 189 194 193 192 191 231 247 237 258 256 254 254 262 279 263 246 259 260 250 264 238 311 286 233 330 290 259 254 245 237
178 141 139 180 176 164 173 174 172 184 190 188 189 184 196 196 211 250 248 241 251 262 248 252 256 271 265 262 243 266 239 249 260 249 243 267 224 242 303 261 245 245 237
187 160 178 183 174 167 186 184 186 191 182 193 195 199 199 253 227 261 234 245 257 252 254 282 271 261 250 258 261 241 242 236 259 213 263 264 227 251 239 244 239 248 241
186 186 184 166 182 184 188 174 190 190 199 211 263 240 226 259 251 254 259 253 253 258 281 265 263 254 250 247 247 224 240 247 245 269 220 261 246 251 232 266 242 232 231
182 187 183 175 180 193 178 193 223 242 271 259 241 267 238 248 242 263 249 247 259 274 266 270 255 267 270 250 216 232 231 244 253 271 266 268 228 241 284 231 254 249 242
229 243 234 235 250 212 253 235 250 280 219 254 266 249 241 264 256 251 246 278 275 271 260 260 294 275 250 221 218 233 236 253 273 267 259 245 239 237 240 237 242 238 249
243 251 262 254 271 239 233 236 266 284 266 235 254 260 259 252 252 265 282 271 258 253 291 289 281 250 224 226 234 234 256 272 267 249 239 237 228 222 225 228 235 243 247
231 242 249 259 246 226 253 264 261 246 255 255 261 243 239 259 255 272 270 250 254 270 258 266 251 241 237 239 247 262 272 261 239 233 227 227 224 231 231 230 233 234 244
303 283 272 271 273 278 262 255 257 256 251 244 241 238 257 261 266 269 254 242 250 262 278 262 254 251 256 264 269 256 238 232 228 226 226 227 226 225 230 234 242 251 267
275 287 283 274 264 263 261 257 259 237 238 259 258 258 259 265 271 260 242 237 237 289 278 277 274 270 248 241 236 228 228 227 227 232 235 233 229 230 236 241 252 271 285
284 278 275 275 264 254 240 238 234 236 253 240 240 245 253 256 256 240 267 284 287 283 252 246 234 231 229 229 228 226 228 228 233 242 231 229 235 240 242 257 276 289 290

GFSMA_2pvu_pres_072.txt.gz
Presure
116 128 141 165 159 160 157 149 154 148 151 123 120 124 149 161 149 140 150 152 144 149 160 153 159 163 172 178 167 172 182 198 188 189 192 231 253 251 256 255 254 242 237
124 134 143 125 151 158 150 129 154 151 125 148 145 143 159 143 165 149 152 158 150 156 159 156 157 163 171 173 170 182 184 198 173 201 209 244 255 263 262 283 272 255 250
141 143 145 133 123 154 148 149 142 127 146 155 148 161 139 145 150 150 155 152 156 158 154 154 161 170 172 160 178 184 192 191 188 199 255 261 264 261 293 276 278 281 255
140 141 142 143 131 132 138 127 139 139 150 169 153 152 148 140 156 156 143 150 158 156 152 163 157 170 180 175 178 186 189 199 201 223 245 264 265 296 275 267 271 267 274
156 153 145 142 139 143 143 143 148 151 152 148 142 139 159 154 147 155 154 162 161 150 164 165 169 180 174 163 185 187 193 189 201 269 258 265 285 281 266 265 258 260 260
148 139 137 144 148 137 151 149 151 152 141 158 144 159 162 147 154 157 160 157 155 160 167 170 171 166 178 182 192 192 191 185 220 259 259 258 291 268 267 255 241 239 245
146 145 147 143 148 143 149 151 141 158 149 146 144 159 160 153 160 167 152 160 167 170 171 177 179 180 184 190 202 196 205 206 241 263 261 289 282 263 262 250 234 227 229
146 148 146 143 147 152 148 148 150 152 148 150 162 149 149 161 153 157 171 162 172 177 153 173 183 184 194 204 200 203 212 226 265 263 257 289 266 260 261 250 241 227 221
143 143 144 153 148 144 159 148 150 150 151 157 156 160 155 142 163 170 161 172 178 164 173 186 182 194 200 196 194 215 247 251 259 210 290 276 262 262 258 247 252 234 223
150 150 149 151 154 154 150 151 150 155 147 160 158 157 167 169 168 174 174 162 170 172 184 183 193 195 199 207 239 259 233 262 264 260 281 269 261 269 249 240 278 246 249
152 144 153 155 153 146 144 155 162 129 147 161 170 165 179 180 169 162 174 176 174 179 183 188 194 195 197 206 228 227 266 252 261 289 276 253 268 261 267 288 303 282 232
163 163 167 166 126 126 170 166 161 170 169 173 173 162 171 161 166 176 181 182 174 183 179 195 192 203 212 221 233 251 263 258 278 287 259 260 267 259 270 330 284 255 265
154 171 172 172 172 173 175 175 178 179 166 160 168 169 167 175 177 182 174 180 191 187 187 195 199 224 251 231 249 259 254 255 284 270 254 272 251 273 298 283 243 351 339
174 179 174 162 167 171 168 169 164 166 167 170 173 170 180 180 186 174 190 187 183 184 197 199 228 252 251 249 262 254 255 284 267 273 269 256 252 265 227 354 326 292 330
180 182 181 179 172 166 167 169 171 168 170 175 177 177 180 186 188 185 189 193 188 200 200 226 247 249 250 263 256 248 286 265 262 257 270 233 248 255 219 237 253 284 318
172 153 155 161 164 125 160 166 158 169 176 178 172 181 154 184 177 196 173 198 198 201 206 261 249 248 257 255 247 265 267 263 253 270 245 246 255 278 242 226 256 244 309
136 161 164 161 168 151 161 148 172 177 174 185 177 168 191 194 187 193 204 199 202 264 237 215 255 253 262 250 274 278 273 264 273 256 233 242 245 269 266 295 265 298 239
153 160 156 138 163 181 165 154 187 137 187 170 183 193 182 192 164 203 193 245 271 231 213 245 269 258 258 291 260 260 259 260 261 244 216 230 255 267 267 267 246 262 266
196 202 194 190 180 154 167 155 191 195 181 186 187 199 195 203 213 232 235 261 246 232 247 261 260 273 271 283 252 281 286 281 246 231 234 234 267 275 260 244 244 250 246
186 210 218 199 205 200 201 202 200 200 201 212 208 231 204 237 236 241 240 244 260 251 258 256 269 278 258 250 273 283 276 253 234 237 241 249 276 267 246 240 234 229 225
171 210 228 239 203 238 208 207 244 238 207 231 269 262 264 259 237 256 241 252 266 256 259 271 270 264 243 262 269 269 251 243 245 232 271 273 264 242 239 230 228 221 221
235 251 245 231 249 236 248 249 254 256 239 224 223 160 238 251 251 257 262 252 252 275 274 291 269 243 240 255 266 269 258 258 266 269 249 241 233 229 231 229 229 230 228
244 260 245 254 253 244 268 290 238 251 273 232 255 250 262 248 255 259 239 260 257 268 268 254 245 252 241 258 276 260 272 257 239 236 231 230 229 228 230 228 231 241 238
230 234 233 244 240 277 272 287 269 283 259 274 264 253 253 261 251 238 261 251 259 258 256 258 263 236 279 264 250 243 235 229 225 223 222 221 230 240 242 229 231 231 231
274 273 284 272 185 289 277 256 199 279 260 255 262 259 246 244 229 254 244 254 247 254 245 246 247 247 239 236 229 224 222 220 222 214 225 239 236 230 238 236 232 237 240
314 284 289 282 260 250 280 254 275 276 255 251 251 238 240 247 256 240 236 250 239 254 240 231 230 232 217 223 222 219 221 220 213 222 233 246 247 238 230 239 241 243 254

GFSMA_2pvu_pres_075.txt.gz
Presure
155 91 152 146 144 141 134 142 141 134 147 153 152 133 135 147 152 164 156 155 146 144 145 157 152 150 158 154 162 170 178 169 172 178 194 194 203 224 243 270 262 267 288
141 140 136 143 138 111 126 123 126 142 141 128 139 149 144 142 162 138 155 137 149 160 161 141 157 162 161 169 168 177 159 178 179 186 197 197 204 240 227 261 259 286 293
148 147 142 141 143 142 145 145 145 148 148 152 148 151 137 150 150 162 144 156 143 167 153 153 162 158 170 168 180 170 171 183 197 189 194 204 221 225 261 265 258 293 275
145 138 139 143 142 136 141 157 156 149 149 142 142 157 154 157 158 140 148 149 160 154 152 165 157 168 159 179 171 166 185 186 193 201 196 220 228 236 259 263 261 283 263
147 142 141 143 142 147 149 151 142 139 140 150 151 151 148 145 149 150 155 158 155 160 164 162 170 172 178 160 173 180 189 193 197 198 205 228 230 265 262 256 287 271 255
144 141 146 146 145 147 142 137 143 148 148 152 149 154 147 153 149 155 151 151 159 161 166 169 176 177 168 177 180 188 192 179 195 201 230 237 251 267 269 260 283 266 251
131 130 134 143 139 142 144 147 142 149 152 149 150 150 153 154 154 156 156 168 168 179 170 182 167 162 180 184 183 189 179 200 201 223 230 257 254 265 262 291 270 259 250
141 150 157 153 148 148 147 145 144 144 153 150 156 153 153 155 151 164 163 165 177 170 181 172 164 182 185 185 192 186 201 194 200 228 257 227 170 266 219 288 198 249 261
148 150 149 147 145 142 145 148 150 153 152 153 155 161 153 164 167 169 174 171 178 178 174 175 184 179 192 193 192 197 198 200 208 249 228 255 270 258 292 277 254 264 274
168 167 153 159 159 160 157 159 156 151 152 160 159 165 135 168 173 175 178 177 152 171 183 184 168 197 185 187 192 203 207 199 235 219 254 222 259 285 277 280 257 274 251
174 173 173 172 166 159 166 169 165 159 163 167 170 170 174 172 154 161 155 171 167 178 185 168 195 182 191 186 203 212 208 234 255 241 252 263 252 283 265 265 270 252 265
179 179 179 178 177 182 172 171 172 174 175 174 163 145 176 170 176 133 174 175 177 182 167 176 179 198 192 205 200 212 234 255 216 253 268 256 269 272 258 269 248 259 323
136 185 187 148 154 181 180 168 179 180 140 180 179 177 152 181 127 168 166 162 176 175 178 180 186 190 202 192 208 205 228 226 252 262 257 256 285 270 265 263 244 264 285
170 176 146 134 149 159 185 185 182 182 182 173 182 122 148 163 185 171 154 180 158 170 173 186 190 201 212 212 199 246 252 251 260 260 260 280 275 265 271 244 242 291 299
134 172 190 189 135 181 158 178 170 168 157 174 126 162 167 163 121 172 186 173 192 193 196 195 203 216 204 245 254 254 248 257 259 271 270 267 262 286 254 237 235 291 288
135 189 185 184 177 191 138 136 144 188 168 156 170 167 155 145 168 153 171 174 191 197 196 209 206 208 255 267 247 246 253 253 263 269 267 273 293 271 248 223 236 275 297
160 191 144 199 150 185 175 133 183 158 158 177 161 154 165 168 199 197 196 192 193 203 218 233 265 261 252 250 258 259 254 274 272 255 281 290 285 255 232 230 259 278 264
197 136 130 200 123 195 184 164 171 199 145 131 196 172 186 203 185 208 210 191 217 230 236 261 237 251 235 262 271 253 271 271 264 245 270 281 272 238 230 241 283 277 249
151 209 218 209 188 153 181 178 195 180 161 169 185 196 186 133 228 203 205 226 254 277 256 246 222 257 261 265 280 276 287 269 250 259 273 254 242 245 233 252 278 269 247
187 193 206 213 214 180 207 204 194 202 198 207 207 218 184 236 223 238 208 228 251 258 261 262 252 255 254 275 293 275 264 251 243 243 270 263 250 254 269 257 243 236 227
206 152 281 272 253 253 272 272 272 204 219 199 205 209 222 218 223 232 240 274 235 219 252 246 263 262 273 276 272 275 295 295 295 283 277 270 267 250 242 230 226 223 224
214 210 209 107 266 263 266 269 268 259 236 235 248 234 252 270 214 276 271 226 264 255 237 261 244 267 266 268 254 252 249 278 277 262 247 239 229 223 222 223 215 219 239
274 277 214 240 260 254 255 258 231 235 235 253 271 248 240 235 279 235 258 258 247 260 249 257 247 257 259 259 245 245 237 234 226 219 228 221 218 225 222 213 220 232 241
135 134 263 252 264 274 190 173 257 247 243 257 244 226 240 266 274 236 255 252 250 238 240 257 243 256 252 243 255 244 230 228 223 216 229 225 225 221 215 221 231 233 237
321 306 305 295 251 259 269 256 256 244 261 249 283 289 241 276 232 255 235 240 241 240 245 245 240 250 242 238 243 247 246 244 222 219 232 227 219 215 224 231 226 234 231
312 298 302 307 324 311 227 252 277 301 279 270 226 251 238 256 254 243 236 237 235 238 253 238 240 242 245 236 247 242 240 244 247 241 236 214 217 223 225 230 234 239 252

GFSMA_2pvu_pres_078.txt.gz
Presure
149 107 158 130 154 160 159 149 146 146 133 148 134 130 148 154 148 149 150 156 138 155 149 147 142 156 157 159 165 173 178 159 166 181 187 182 195 204 198 228 245 249 266
153 152 150 149 151 148 143 142 144 147 152 152 141 152 151 153 152 151 158 147 159 143 154 158 152 155 160 162 172 172 157 163 174 179 190 181 202 211 192 237 218 259 268
148 151 144 151 150 149 150 150 152 144 137 146 150 145 150 148 149 153 145 152 146 157 158 152 152 159 176 173 167 182 175 178 182 192 184 191 194 213 195 253 237 255 273
143 149 146 151 146 135 135 143 144 142 146 147 144 149 141 141 154 152 143 153 158 160 157 152 174 169 177 181 183 165 173 180 173 191 180 205 188 211 229 252 239 254 273
152 158 151 149 139 149 145 148 147 142 147 147 148 146 153 157 144 146 155 156 135 159 160 168 167 178 167 179 172 175 180 183 176 192 188 197 208 199 232 222 251 272 260
154 158 153 150 137 139 138 135 133 132 143 155 149 150 153 144 147 157 159 155 161 162 155 168 178 156 178 176 181 178 181 169 192 190 201 205 210 270 233 229 253 271 287
145 144 138 141 144 146 147 147 144 141 151 148 149 148 146 162 159 163 154 165 163 171 180 178 147 180 181 190 187 180 190 142 198 194 203 216 269 227 254 253 258 259 284
162 160 159 155 160 155 161 156 153 145 146 151 155 159 158 160 156 157 177 173 145 184 184 179 185 183 149 127 171 185 181 192 202 205 213 212 228 254 257 254 269 261 272
156 159 156 163 162 161 161 156 159 165 162 159 166 174 173 169 174 176 176 132 182 182 185 185 182 179 158 156 187 186 189 182 200 196 201 251 238 225 256 258 262 286 268
169 167 170 171 168 169 169 170 133 167 171 173 178 179 176 178 178 175 134 173 137 185 148 176 158 185 161 173 166 159 201 192 196 216 253 233 241 246 261 267 275 284 272
137 165 167 170 170 162 167 168 178 180 182 180 174 181 186 178 155 162 182 184 177 154 175 156 138 150 183 166 197 206 183 205 223 246 241 218 253 257 267 259 273 277 268
183 182 181 178 130 158 173 169 186 193 159 136 167 150 162 152 163 160 169 122 176 176 149 187 168 198 184 156 205 211 215 223 258 256 256 247 260 262 247 278 265 265 294
186 181 185 184 185 184 154 183 158 179 137 164 134 144 148 130 111 159 173 172 148 143 196 178 167 198 210 199 211 211 228 238 242 236 228 267 257 265 275 274 257 288 274
197 182 177 171 153 146 169 149 172 163 135 131 145 160 176 164 156 156 171 168 172 189 173 182 203 199 199 214 219 250 252 248 268 223 270 265 273 262 275 257 293 283 264
179 194 190 196 194 127 189 153 164 179 174 185 122 130 196 193 191 153 198 152 193 170 135 192 185 204 212 205 220 273 244 240 216 271 268 273 275 282 259 296 281 272 251
153 189 187 185 176 177 180 180 130 183 183 134 131 168 189 131 134 152 130 135 187 151 190 147 197 207 207 237 231 237 257 250 257 258 274 265 282 273 251 278 280 249 243
147 179 170 205 153 200 188 193 121 170 140 181 113 132 198 122 124 159 177 162 202 194 167 156 211 203 211 229 220 231 259 260 275 274 305 280 272 255 247 269 261 242 240
203 200 176 198 193 173 168 132 178 182 172 210 207 193 191 211 206 204 205 178 211 209 203 231 245 223 217 255 266 261 264 262 275 267 298 259 254 254 244 278 266 254 253
190 192 189 190 193 198 195 197 183 196 198 190 188 181 196 197 211 213 215 220 266 257 238 250 262 216 267 209 251 261 259 253 257 272 300 289 287 277 287 272 276 273 265
193 103 195 196 198 161 197 198 161 200 152 199 202 202 197 200 250 193 256 240 218 240 279 230 234 246 246 247 245 261 251 274 270 261 257 250 243 247 259 248 238 231 228
204 203 203 204 202 203 126 143 210 154 210 210 209 208 240 204 211 246 265 253 242 234 233 248 258 249 240 248 252 248 255 263 261 259 249 239 239 231 224 226 226 220 223
217 215 144 217 219 217 218 218 219 222 223 221 217 219 245 197 270 274 273 279 252 251 274 201 264 250 241 241 242 243 252 254 249 251 254 246 232 228 219 220 227 227 225
239 243 221 256 257 269 167 257 250 237 264 257 245 261 167 196 297 251 264 278 254 281 257 242 255 250 238 237 238 258 250 250 251 246 257 251 243 248 237 226 237 235 220
265 269 275 204 256 250 247 262 264 277 267 250 240 243 238 276 271 261 258 268 215 254 260 227 244 239 238 233 243 255 243 247 245 253 248 246 238 239 245 243 227 215 216
294 283 280 267 270 260 245 237 231 324 319 253 241 240 254 291 275 273 244 258 241 246 256 244 237 233 238 230 251 244 240 243 243 243 240 247 230 240 223 215 217 225 221
286 292 299 297 293 278 291 268 240 240 236 223 289 290 232 270 218 250 252 239 254 249 244 235 235 248 239 252 244 247 236 253 240 237 230 237 253 227 214 219 221 218 223